GFSWCAN_2pvu_pres_078.txt.gz
Presure
261 245 229 226 187 229 133 197 185 198 149 202 150 146 146 151 118 116 123 116 125 152 183 110 150 199 225 142 191 170 171 199 299 172 446 421 295 264 330 304 291 291 293 289 283 277 271 281 273 286 301 307 290 277
194 233 236 221 222 216 218 214 179 144 227 139 169 137 147 118 121 118 156 144 147 231 131 211 135 192 205 218 164 229 284 280 284 154 173 177 361 343 336 306 296 287 282 288 292 283 278 276 274 270 291 304 310 308
181 191 194 232 224 231 231 235 242 234 164 143 155 144 159 150 127 118 140 142 131 137 117 177 134 219 194 229 174 193 229 261 152 372 299 142 328 349 338 318 302 292 279 285 294 285 282 276 275 267 268 285 284 290
174 180 188 193 193 194 193 190 170 170 155 146 154 156 122 115 133 113 125 135 121 116 116 198 187 166 143 218 225 239 260 285 152 146 397 151 247 353 336 328 310 294 288 207 275 286 293 279 272 270 266 263 272 276
173 174 178 179 176 175 170 161 164 166 158 154 152 171 153 112 130 143 150 142 146 131 192 182 163 172 156 155 197 187 252 183 149 398 156 147 218 360 335 338 313 294 278 282 288 284 283 298 280 269 268 268 262 259
164 160 162 173 176 178 155 173 169 161 154 169 169 143 147 159 127 135 143 143 138 135 153 182 144 134 141 238 144 283 244 189 288 354 150 153 348 364 350 326 324 300 287 286 278 277 275 274 271 279 276 264 261 262
177 176 163 172 163 161 166 160 167 164 161 161 163 133 132 128 156 188 169 176 204 141 165 114 135 144 224 204 207 172 263 264 243 147 239 187 378 353 357 318 321 308 291 280 279 273 273 273 273 275 269 271 272 266
167 162 161 178 165 160 170 163 159 161 164 139 142 118 123 129 142 149 206 156 136 228 157 114 163 203 114 254 272 134 281 233 145 142 244 326 376 340 318 324 316 311 294 282 274 264 266 266 270 276 276 271 271 267
175 169 153 156 156 155 152 156 167 158 125 135 133 182 166 153 178 214 207 195 229 156 196 143 141 125 242 207 241 252 170 185 338 366 319 340 351 378 317 334 326 309 300 290 277 272 268 272 267 264 267 269 267 262
169 165 167 143 177 143 161 177 177 152 120 121 169 140 120 169 157 213 127 180 96 238 127 143 116 258 218 253 183 146 226 224 367 130 342 329 325 342 318 328 321 311 308 302 282 281 274 268 266 265 267 263 262 264
182 178 177 175 169 166 165 166 159 121 172 145 138 224 131 176 204 218 134 102 161 137 108 183 236 227 248 229 135 130 253 250 360 338 337 354 314 315 323 305 307 297 296 288 294 288 277 272 269 268 266 265 255 256
137 144 171 167 159 168 170 159 202 150 154 129 184 181 209 224 223 176 218 134 161 141 210 240 194 244 172 129 126 209 142 302 331 328 342 379 324 306 310 313 300 296 295 292 285 285 286 284 278 270 259 260 265 265
180 172 178 171 174 176 187 185 166 183 211 175 172 209 219 175 131 221 145 165 171 209 235 140 126 124 126 222 162 150 258 173 332 315 337 362 369 306 300 295 301 297 298 291 287 279 287 294 287 277 272 270 269 265
179 200 197 180 137 179 177 193 205 200 224 201 207 214 220 222 164 194 213 216 222 160 179 221 125 146 265 194 145 291 280 337 316 306 305 350 350 343 307 297 290 285 295 296 296 288 287 286 286 285 282 280 277 273
178 180 198 194 209 212 151 199 197 205 227 218 200 190 196 183 199 229 168 189 229 191 131 234 177 209 186 252 265 275 351 321 311 299 293 333 344 334 328 316 303 294 286 283 280 275 272 272 272 273 274 276 277 284
202 209 211 206 190 180 211 210 209 141 187 199 216 197 228 194 224 196 223 208 217 119 117 263 125 213 241 263 299 266 203 318 302 292 297 331 325 329 328 326 326 325 319 321 319 315 316 317 316 315 322 324 320 322
172 208 198 168 216 218 202 209 214 215 222 149 208 219 225 218 226 149 226 134 234 252 252 236 152 158 250 266 347 360 327 313 298 290 286 299 321 286 319 315 313 311 303 302 301 299 294 292 295 298 297 298 299 301
212 111 204 206 198 132 211 191 206 204 215 192 212 217 206 227 231 217 137 249 265 230 121 137 231 255 262 284 364 349 325 310 297 284 287 288 308 287 311 301 296 287 295 288 292 288 289 277 285 286 286 286 290 290
209 190 210 215 213 200 210 212 215 207 218 220 174 223 225 232 207 233 262 250 117 177 249 229 260 263 341 373 372 346 327 316 297 282 280 276 285 317 310 299 290 284 288 289 276 286 277 274 279 281 282 280 279 279
222 145 143 141 228 237 222 221 224 222 223 229 160 218 165 219 130 113 251 147 256 205 251 251 270 364 359 373 351 350 325 313 299 283 277 273 279 290 311 295 288 287 288 285 282 281 263 273 280 279 277 275 276 279
223 221 228 100 228 226 226 220 220 223 235 159 201 113 112 111 258 150 208 180 179 256 261 318 365 359 347 339 345 340 325 313 298 288 281 274 273 283 267 277 276 269 295 286 283 279 282 284 280 273 276 277 281 278
233 232 230 163 233 239 246 124 163 194 211 112 106 108 219 183 184 250 258 225 257 283 324 380 350 341 340 329 326 329 327 313 300 291 281 273 270 266 271 281 272 276 288 275 283 286 277 277 277 279 281 282 284 280
216 215 257 257 255 188 192 248 210 224 104 253 259 207 258 203 266 223 263 270 313 318 370 352 348 336 329 327 323 325 318 315 306 296 290 277 265 265 264 270 272 293 293 273 265 286 279 269 275 277 289 297 283 282
243 242 237 240 241 247 253 252 256 260 262 261 218 267 274 277 265 262 303 323 362 371 346 336 330 318 324 320 319 315 318 314 313 304 300 293 284 269 263 267 269 269 273 295 291 281 297 281 284 289 279 277 298 299
248 253 266 255 249 242 242 258 256 262 267 271 314 265 267 325 323 313 324 316 355 345 340 331 321 312 314 311 313 312 317 322 332 311 307 310 303 289 272 265 264 266 269 267 298 291 295 295 288 296 297 306 297 300
261 261 255 235 289 253 277 286 310 309 308 309 310 278 322 312 328 319 316 358 339 332 323 316 311 308 310 313 319 313 332 333 332 335 338 316 305 317 292 279 266 262 266 271 269 263 260 264 264 284 292 293 274 274
288 294 302 295 301 305 303 303 303 299 316 316 329 327 328 318 309 360 342 334 324 320 315 314 305 308 308 307 312 318 321 322 321 317 324 322 320 314 300 307 283 271 265 268 269 265 268 267 270 273 268 264 261 260
313 317 311 306 303 308 309 313 310 304 317 322 330 356 314 359 351 337 321 318 318 315 312 301 301 303 302 303 301 300 314 314 316 314 313 316 318 317 309 295 306 307 281 270 267 270 265 270 270 264 268 276 280 263
302 300 296 303 306 312 304 302 322 322 315 315 307 308 338 335 329 324 320 315 312 307 306 307 304 306 312 309 309 317 319 314 307 313 315 307 311 314 310 307 301 285 305 302 275 273 273 268 264 263 267 269 264 263
300 309 319 326 329 332 333 327 311 298 353 346 340 336 327 321 316 314 312 317 317 305 301 304 310 313 314 314 312 311 309 312 317 315 309 312 317 312 309 308 306 306 301 290 308 302 277 275 273 271 268 266 267 269
317 314 317 327 357 371 365 365 358 344 334 331 325 315 311 314 313 310 312 309 310 311 314 314 313 312 312 315 317 317 318 327 331 334 335 334 330 322 325 325 312 310 310 309 302 299 309 306 284 278 274 271 271 272
338 369 366 355 342 336 336 330 326 322 322 319 318 320 314 309 309 313 317 317 314 311 310 313 320 326 331 336 333 337 343 346 349 352 355 356 358 356 351 335 335 333 320 314 315 313 308 308 307 314 289 284 281 277
345 341 335 330 327 321 315 311 308 308 311 308 311 312 313 316 315 315 314 313 314 310 323 329 318 335 345 357 366 380 406 435 519 409 407 413 393 402 402 395 387 373 345 344 333 319 316 317 313 305 302 297 293 289

GFSWCAN_2pvu_pres_081.txt.gz
Presure
182 190 179 212 234 253 248 131 238 228 226 176 156 149 222 160 223 143 156 149 145 146 100 132 109 152 159 181 134 222 182 198 207 203 227 154 150 143 150 160 341 321 301 291 286 279 269 271 279 291 301 288 284 283
183 190 197 193 207 248 251 243 231 133 142 226 142 217 214 171 168 145 163 146 157 137 140 143 109 204 147 227 144 192 158 181 241 199 215 148 163 413 147 153 345 321 303 297 293 288 278 277 269 276 272 279 290 293
182 175 172 179 193 198 256 244 235 224 220 224 225 231 194 158 165 152 154 127 135 144 153 105 122 152 147 163 169 219 231 208 184 252 189 168 447 367 147 348 354 341 316 295 283 293 286 282 275 272 274 276 271 293
174 176 167 179 181 188 194 196 190 192 195 196 194 189 181 166 175 151 153 146 129 134 161 155 135 123 196 129 209 138 191 146 201 154 228 322 392 280 148 370 365 343 326 297 290 235 285 288 281 279 275 275 272 274
173 177 169 172 177 181 186 193 194 191 189 189 181 171 178 172 157 169 123 145 134 129 125 137 137 222 143 114 211 118 146 231 173 183 248 332 156 140 383 389 347 345 326 298 290 260 282 290 286 282 277 273 274 267
173 174 168 172 179 174 184 182 183 183 180 175 168 173 172 201 160 158 158 132 132 132 122 143 132 143 125 105 118 233 219 234 252 199 277 194 142 156 365 370 339 335 337 303 292 290 278 276 273 286 280 271 267 268
174 163 180 156 174 179 186 181 179 175 174 174 172 183 182 183 148 133 120 117 127 153 156 160 168 164 97 133 126 249 173 169 236 210 143 142 383 369 400 344 345 347 322 329 291 289 280 278 272 271 270 284 275 272
169 177 175 179 169 179 175 175 169 179 170 169 166 171 182 159 145 159 131 131 141 151 129 123 106 144 132 165 207 241 234 179 255 250 134 192 248 355 374 355 335 350 328 326 296 285 281 270 271 269 269 269 266 267
167 165 172 167 171 160 163 163 177 165 163 171 167 161 163 141 179 134 133 135 189 127 144 121 135 200 202 172 178 154 243 239 253 131 134 261 150 337 349 379 388 341 342 317 313 294 277 278 277 261 263 276 274 272
155 149 146 153 164 169 173 169 154 168 153 161 162 172 169 136 162 128 136 124 146 137 145 208 121 193 143 236 162 145 238 181 143 129 134 145 131 323 331 371 394 322 316 319 312 296 289 277 275 272 268 268 268 264
144 175 169 158 162 166 164 179 156 175 168 170 187 220 178 161 133 139 170 161 215 115 149 196 143 225 228 202 180 242 223 244 168 124 252 211 335 420 321 325 327 315 325 321 302 298 290 286 278 276 272 269 267 266
164 143 173 171 173 173 138 179 172 175 173 192 142 178 144 147 118 157 130 193 160 229 222 189 194 152 181 216 235 183 131 124 195 286 260 368 331 399 320 311 325 311 308 312 295 287 291 287 284 280 274 270 268 264
178 178 175 174 178 177 150 183 170 186 174 179 158 164 165 141 176 191 209 239 226 221 238 175 193 135 165 236 228 227 221 254 172 231 247 181 329 380 345 306 301 313 305 299 290 285 286 284 281 285 283 281 281 280
171 170 173 181 143 169 175 148 167 186 186 196 174 189 182 187 200 191 110 224 218 226 162 210 130 230 237 243 136 239 123 243 280 258 240 341 328 346 359 314 303 293 297 300 293 295 291 279 276 275 274 275 275 277
172 164 171 169 184 161 141 130 182 190 143 208 207 127 194 194 222 213 231 216 202 215 238 227 203 229 111 194 239 132 275 269 276 270 349 334 321 316 347 342 309 297 290 283 281 286 290 288 288 286 287 286 286 287
156 178 161 159 184 189 196 189 184 184 188 197 217 229 218 214 149 217 231 204 187 216 226 159 231 233 246 170 188 268 269 268 277 277 310 331 319 313 344 333 327 321 303 292 286 284 281 277 273 271 268 268 268 271
211 211 207 195 201 201 140 211 209 175 179 216 215 226 233 167 216 239 216 227 212 233 226 168 224 240 236 239 265 263 145 278 263 277 336 323 309 313 311 324 293 320 316 316 320 323 315 316 318 318 319 316 316 311
219 214 208 214 212 213 204 222 218 202 215 213 221 210 217 215 214 223 218 221 226 223 210 216 249 232 239 264 262 250 276 268 267 348 325 323 310 298 300 299 304 314 301 311 302 300 300 297 296 293 294 296 294 295
207 210 211 209 214 215 214 205 189 215 208 173 210 216 228 220 212 214 232 196 193 229 235 197 235 239 259 166 209 276 263 272 367 347 334 321 312 299 302 294 288 310 291 290 289 290 283 287 286 289 285 276 284 284
201 201 207 206 186 207 150 212 201 208 219 216 213 218 220 219 234 213 222 192 231 151 213 238 251 270 263 204 268 267 264 371 366 350 332 319 309 294 295 287 287 307 301 280 271 288 286 287 278 283 271 271 274 282
220 206 209 222 201 202 199 204 206 138 205 112 214 223 222 223 221 224 229 132 233 234 116 253 282 265 252 262 265 269 352 352 350 343 330 312 302 290 293 284 283 313 306 294 292 270 263 287 283 275 282 285 265 276
219 220 215 214 213 214 218 147 213 215 217 220 222 224 217 198 203 214 182 236 199 240 231 267 242 180 258 261 332 362 341 345 329 326 325 318 305 297 286 280 278 272 306 307 273 275 279 271 272 275 279 277 280 279
223 163 220 218 166 222 218 224 219 221 227 224 222 224 230 192 232 236 119 179 250 220 270 227 276 256 268 353 364 350 336 330 323 321 318 315 311 303 294 285 277 275 269 272 287 274 285 269 271 280 282 283 278 271
222 224 223 226 227 225 221 219 224 227 232 233 234 159 169 174 220 211 265 271 267 228 256 247 255 266 355 357 347 330 328 320 318 319 312 312 313 309 306 300 289 278 278 271 266 274 281 303 300 287 250 256 283 278
232 223 239 223 228 225 228 231 231 231 241 243 241 227 244 259 269 263 265 248 252 254 268 359 391 314 360 349 334 325 318 316 315 315 323 322 319 322 317 312 306 293 287 278 275 264 271 267 265 273 307 308 302 302
249 245 246 245 244 245 247 248 246 249 253 257 265 269 269 266 267 264 254 242 321 329 324 312 307 349 338 333 322 312 309 308 315 313 327 323 331 331 322 331 337 317 306 292 278 273 265 264 264 264 266 270 278 283
260 255 254 263 264 267 269 273 274 233 272 272 270 259 244 252 300 318 329 311 327 321 317 334 352 340 327 316 314 310 314 311 304 312 314 315 320 331 323 321 328 337 328 307 305 287 275 271 266 269 266 266 265 264
261 260 254 259 250 254 253 249 263 273 278 278 261 326 323 322 316 312 315 330 330 352 347 341 334 322 316 315 312 319 313 308 310 313 316 318 314 334 319 316 311 317 322 322 314 303 304 285 273 270 271 271 268 266
287 290 289 293 291 286 293 278 306 317 288 319 324 317 314 322 336 336 323 337 350 342 333 331 321 319 318 318 169 315 304 301 310 313 316 317 322 329 332 320 309 313 313 316 317 315 306 307 307 285 276 271 273 272
283 289 284 282 286 301 307 305 319 321 314 313 307 307 311 322 359 362 346 342 339 333 331 327 323 319 315 317 319 318 315 322 325 321 314 311 313 313 318 322 323 321 307 310 317 319 315 310 303 305 311 294 281 274
316 308 309 303 313 312 313 314 316 306 306 313 316 315 359 346 343 335 337 335 332 330 325 319 322 316 315 320 325 327 317 317 319 322 320 322 329 331 331 331 333 334 337 334 312 313 319 325 319 312 304 296 317 312
311 307 312 309 301 308 303 309 319 321 371 368 354 344 342 338 336 338 333 327 319 318 320 322 324 327 325 316 327 323 322 323 334 342 350 361 368 381 384 421 385 375 357 350 350 349 320 318 320 327 318 315 306 297
303 302 307 305 305 307 306 315 358 351 346 340 334 336 335 339 332 333 327 320 321 325 323 327 324 323 324 331 336 343 361 378 408 441 430 398 400 419 455 467 457 489 514 525 410 401 383 366 331 328 327 330 324 308

GFSWCAN_2pvu_pres_084.txt.gz
Presure
174 182 182 183 187 185 191 200 250 242 237 226 227 227 220 176 227 174 222 188 176 159 159 135 145 148 132 144 165 145 152 149 159 224 188 213 242 326 149 154 375 144 255 327 302 294 280 287 271 294 287 284 283 279
174 183 185 184 191 189 192 198 218 254 249 235 232 147 132 135 224 210 202 189 175 162 167 147 137 170 136 140 114 116 135 195 173 194 164 170 246 340 426 404 402 148 371 328 312 295 283 287 291 281 289 291 288 288
180 185 189 187 196 165 192 192 203 261 255 252 243 229 216 219 139 207 196 184 169 163 152 147 127 148 151 143 133 116 125 211 219 181 151 186 252 311 350 204 148 152 377 339 315 300 287 287 262 272 275 274 272 271
186 185 185 190 193 192 191 189 194 207 247 253 246 218 199 146 193 194 192 178 162 171 153 165 136 149 124 151 152 131 164 109 227 132 120 235 179 289 264 146 263 408 377 355 321 303 292 282 282 275 272 271 271 273
185 189 190 188 188 192 187 179 192 191 195 195 192 191 191 191 192 192 132 166 170 157 159 147 142 98 145 145 126 148 175 172 140 170 171 225 165 192 142 147 286 229 377 359 331 311 291 287 283 281 273 275 272 272
181 188 189 189 194 193 173 181 183 184 188 190 191 190 181 189 186 186 178 177 177 152 124 157 123 148 153 135 153 126 137 225 151 165 250 245 266 134 142 312 378 371 402 372 341 318 287 284 284 283 288 281 281 280
182 174 185 194 191 183 172 175 181 181 184 185 186 187 183 180 176 165 180 179 173 159 153 158 145 150 130 150 138 195 153 211 147 245 177 240 254 137 208 365 141 208 396 360 349 327 291 282 279 276 282 287 281 282
155 181 184 189 185 181 177 172 176 180 182 184 185 186 179 181 146 182 189 169 148 145 156 159 161 115 135 119 170 231 147 197 236 189 229 198 165 267 170 133 144 415 327 360 341 340 300 285 284 273 274 276 285 289
161 179 186 182 182 182 183 163 168 179 181 182 186 182 173 166 182 178 145 170 159 157 152 140 146 138 176 227 122 229 135 229 217 239 253 224 263 261 272 358 340 351 366 336 351 331 304 284 281 280 276 274 268 267
153 152 151 181 182 179 181 174 182 180 181 182 177 161 165 160 180 169 142 135 142 136 142 133 142 143 120 178 230 231 228 177 237 151 237 257 128 132 282 195 134 332 380 345 340 316 330 293 278 276 277 265 263 269
171 177 161 149 176 182 187 176 168 169 173 172 173 171 167 154 165 166 134 173 149 153 115 136 143 211 224 152 133 223 140 230 148 249 197 233 176 185 274 374 345 322 418 348 318 318 308 309 289 282 270 274 271 268
178 166 178 179 170 162 161 161 157 163 161 161 166 149 163 172 172 174 158 156 168 142 128 169 194 212 239 209 197 231 200 208 144 240 208 258 123 265 267 384 348 328 321 322 304 319 306 302 305 293 285 276 270 265
164 167 151 166 144 167 166 168 170 161 171 175 160 177 185 146 161 174 181 181 159 212 150 226 209 247 206 230 227 221 223 224 238 245 151 135 268 267 257 368 362 332 310 311 311 300 313 308 297 297 294 284 281 277
164 163 162 162 141 141 159 170 172 168 154 184 143 162 142 178 165 204 152 185 209 144 202 216 237 229 235 225 211 233 222 238 244 138 130 231 269 277 362 355 351 334 312 300 294 327 297 296 286 281 280 280 280 278
180 162 163 163 161 165 156 161 164 162 180 155 152 189 157 161 151 202 186 195 186 203 220 222 206 184 216 152 229 237 234 236 187 170 257 267 261 268 340 339 347 334 330 311 298 287 290 293 284 279 276 274 275 275
178 172 168 167 172 170 170 166 177 174 165 169 180 158 171 216 197 201 200 200 223 231 216 223 217 221 226 221 235 115 234 217 232 261 257 269 262 282 276 347 332 320 326 312 302 298 295 284 282 287 286 284 284 283
209 191 193 155 196 128 125 134 184 209 117 207 198 166 194 217 213 131 212 221 218 216 227 224 224 224 228 228 226 232 238 242 243 190 271 280 262 269 340 324 328 314 327 320 315 311 302 292 287 284 280 277 273 273
191 204 203 196 197 123 198 186 201 214 204 200 195 210 206 212 216 211 221 234 233 225 234 225 216 222 228 225 151 234 212 240 253 189 272 276 273 269 339 319 325 313 291 315 315 318 311 312 310 310 308 307 305 304
205 150 171 189 183 208 159 158 186 186 213 219 207 213 212 218 229 200 193 218 224 218 219 216 228 228 219 227 237 234 242 252 255 210 343 275 278 350 333 316 321 311 290 299 297 299 306 299 297 298 296 291 293 288
179 205 145 205 185 126 212 207 209 203 210 199 216 220 217 225 207 203 224 215 206 161 150 225 142 233 227 231 233 233 182 253 260 254 270 279 370 352 332 306 324 305 299 297 309 281 309 269 290 291 274 280 282 287
167 220 92 214 210 211 205 185 147 200 201 219 218 206 206 209 216 213 213 219 215 229 226 228 195 232 123 125 242 241 258 255 278 275 283 364 349 355 332 319 311 291 307 286 296 278 308 296 276 283 265 288 284 279
206 216 210 206 218 209 220 220 214 207 208 206 212 217 217 214 219 217 222 230 231 230 224 226 236 234 239 245 233 256 256 271 293 258 303 334 341 336 328 326 307 298 289 293 280 287 276 264 292 287 278 275 273 278
216 218 218 214 216 214 155 152 110 191 219 221 224 186 227 227 232 229 229 233 224 196 235 193 189 241 247 248 248 256 275 288 273 332 359 335 332 324 323 318 314 311 297 288 288 282 276 276 267 294 282 279 280 280
217 228 227 225 103 215 217 217 220 220 218 218 220 222 219 228 168 199 225 234 237 243 236 243 243 245 189 254 264 285 265 342 357 356 345 335 326 320 315 314 313 311 306 305 297 291 289 280 276 271 269 268 271 292
229 218 219 190 213 224 224 222 225 228 228 229 229 226 147 222 232 234 241 233 238 246 248 224 256 253 252 276 275 395 386 375 362 342 337 328 322 318 314 313 314 321 328 315 313 312 306 292 288 277 273 267 273 269
212 220 223 227 221 224 226 228 229 230 231 230 230 230 229 231 231 197 244 243 247 247 254 224 252 280 276 258 302 377 363 355 346 340 325 316 309 313 308 306 323 323 326 325 341 335 323 312 307 296 286 261 263 270
240 227 228 236 232 231 230 229 224 224 235 234 236 191 236 233 245 242 247 250 256 258 259 281 276 310 335 330 369 364 351 343 328 323 314 310 311 315 313 310 319 320 316 322 321 314 319 322 332 317 306 293 284 267
258 247 252 250 244 243 239 236 241 238 239 240 219 240 245 251 252 263 261 252 280 280 276 339 335 329 377 370 355 343 338 330 329 319 315 311 310 310 307 303 307 311 318 328 329 315 316 314 319 330 328 314 303 295
276 268 258 260 269 254 268 250 252 252 253 257 272 249 265 275 250 276 277 312 312 309 339 329 322 380 364 349 337 329 327 326 320 319 318 317 315 321 314 314 321 326 322 317 315 323 324 308 307 315 319 323 316 303
269 268 270 275 274 275 277 279 279 267 259 260 259 264 280 285 292 310 301 307 341 336 330 363 367 353 344 339 334 334 333 331 330 328 320 314 313 316 321 320 317 317 322 324 324 326 331 325 317 311 310 316 318 320
292 288 291 292 293 290 290 295 295 293 293 294 295 297 297 301 298 331 343 332 319 358 373 360 352 342 340 338 335 331 330 331 328 320 318 323 325 332 334 334 336 336 343 348 350 347 350 350 346 326 319 318 316 319
271 270 272 274 277 284 293 295 297 296 292 290 291 295 343 335 331 325 308 371 361 357 349 344 342 337 335 333 331 331 329 324 324 328 335 336 339 365 402 432 437 430 431 429 430 437 437 440 397 371 360 319 322 328
305 300 304 297 295 298 300 292 301 309 325 331 332 326 317 336 327 378 370 359 354 351 347 334 334 338 338 337 331 327 332 342 345 360 389 425 402 390 386 386 403 412 419 416 439 514 533 461 406 426 449 409 372 338

GFSWCAN_2pvu_pres_087.txt.gz
Presure
176 168 189 186 185 186 185 189 191 192 194 208 199 230 224 229 222 221 224 157 139 225 172 191 184 159 131 151 134 165 120 134 107 161 158 138 202 200 273 261 379 410 368 207 144 152 315 297 291 298 291 287 293 295
178 170 188 182 183 186 186 190 188 191 199 203 234 221 228 221 223 226 231 222 134 202 189 175 176 172 169 152 165 148 161 129 153 213 167 118 237 162 166 256 406 414 169 346 373 370 331 304 293 293 293 296 289 289
183 168 187 179 179 184 186 184 191 192 196 201 229 236 237 227 222 233 232 228 173 195 191 186 175 165 140 153 143 121 116 161 216 211 197 142 230 154 158 260 283 142 142 377 363 356 345 311 297 290 283 286 288 280
161 167 185 188 176 188 187 189 190 192 196 202 231 246 242 239 238 236 222 163 200 192 187 182 176 167 174 131 149 129 129 152 154 165 145 196 112 243 212 142 316 140 276 405 279 356 343 318 301 293 287 175 278 282
222 169 182 191 177 187 188 172 186 192 196 196 202 247 244 240 240 217 202 200 200 194 186 178 169 165 144 163 149 151 129 148 191 131 172 188 179 225 253 138 134 162 295 315 334 408 358 326 304 294 284 272 273 272
209 164 187 188 180 183 188 184 190 193 195 192 195 191 193 196 193 194 191 196 196 188 188 173 175 171 175 137 126 163 152 140 232 140 241 203 158 225 139 259 132 191 351 375 358 405 367 330 304 296 291 278 278 274
162 162 182 191 182 182 186 183 190 194 189 191 191 190 190 187 188 190 191 173 196 191 180 175 191 151 147 161 115 140 149 157 150 195 244 135 141 210 132 263 252 128 342 387 358 386 324 340 295 282 274 279 276 277
157 164 169 182 187 182 191 185 198 192 189 177 190 191 185 189 189 193 194 191 177 185 176 174 157 146 156 134 136 156 150 200 111 143 241 161 198 247 221 152 291 130 350 408 365 387 344 341 301 284 273 274 280 275
166 163 170 183 188 179 186 188 184 187 187 164 176 182 179 178 181 186 192 193 177 164 164 153 150 143 130 148 178 143 170 140 210 138 229 236 238 220 138 129 132 135 358 348 353 366 349 344 309 290 277 275 271 268
166 162 163 186 167 178 184 187 184 191 189 185 168 169 174 174 183 184 183 167 168 164 143 175 159 161 130 126 147 142 136 154 226 148 202 188 239 257 190 259 232 277 365 341 385 360 343 332 319 297 269 272 275 269
161 160 160 182 163 183 165 182 189 189 185 182 178 167 173 171 162 179 186 168 147 172 168 152 168 133 144 128 149 212 147 228 229 215 160 234 244 237 168 268 265 292 368 350 361 366 329 320 328 308 288 283 277 276
160 153 146 150 153 162 165 174 172 182 188 182 182 178 171 181 168 165 148 159 173 181 145 135 177 191 150 181 168 178 175 127 187 229 241 155 175 243 223 206 266 296 361 344 324 339 310 306 315 323 298 285 279 274
154 159 158 164 174 152 155 154 152 153 156 188 167 171 152 177 162 144 172 178 153 139 141 140 176 201 186 214 185 214 184 237 168 231 229 219 228 252 132 261 271 307 377 340 324 306 314 301 311 297 314 306 293 280
150 155 162 161 154 171 172 152 152 178 176 173 173 181 169 166 162 138 131 155 149 171 147 197 176 121 210 213 216 231 218 218 228 234 236 242 227 249 245 257 269 298 313 356 333 314 300 300 301 308 308 302 300 297
172 162 151 162 167 168 164 151 163 152 165 171 171 177 195 159 152 148 141 187 169 155 151 136 153 203 165 209 177 219 220 223 236 227 218 140 244 218 258 258 273 275 354 340 337 321 311 299 291 336 288 291 291 285
207 162 164 169 160 162 162 143 170 159 137 150 154 167 183 142 187 143 137 198 190 199 186 218 201 214 168 170 220 218 222 233 219 238 212 239 124 212 256 254 269 362 336 324 329 325 317 307 299 287 286 285 283 278
161 144 169 164 162 165 164 165 166 150 154 168 174 170 179 166 170 175 195 210 167 154 193 208 223 214 233 207 238 225 249 229 233 239 237 223 227 242 259 251 278 345 334 314 326 309 317 313 307 302 293 286 277 277
202 198 170 170 164 160 162 162 166 167 180 172 189 180 126 180 193 197 195 207 215 212 213 204 222 220 200 232 221 231 233 227 216 243 174 131 250 246 258 250 282 350 329 320 324 308 312 286 311 305 302 303 302 297
206 131 186 199 191 190 196 196 196 173 173 183 202 168 204 193 195 211 197 208 202 210 222 216 212 222 223 226 232 243 222 238 222 225 246 235 243 238 260 264 274 336 325 321 326 298 314 287 305 305 299 300 303 302
205 210 209 212 212 202 195 192 127 168 193 192 192 203 162 203 180 207 218 213 204 211 219 228 214 227 221 233 219 222 177 228 182 207 253 249 237 263 245 286 367 341 329 319 302 315 291 308 283 299 274 301 269 289
187 203 137 120 214 152 150 168 167 125 211 119 128 220 214 210 216 213 124 216 211 225 218 220 217 239 233 223 232 123 183 126 230 233 236 239 257 259 278 360 352 349 337 312 313 298 307 289 304 279 295 267 292 261
206 208 187 183 135 202 215 191 218 208 213 211 202 149 215 211 208 222 217 210 214 218 223 228 227 191 234 213 228 132 213 226 241 211 247 251 258 272 295 348 343 333 332 320 305 305 297 298 289 288 279 270 271 281
218 216 204 214 214 208 203 198 207 213 204 216 208 203 200 209 212 218 221 221 223 228 233 225 122 216 232 234 212 199 236 246 233 246 251 259 270 327 367 342 336 318 323 317 316 313 303 292 289 289 287 281 278 269
212 216 212 218 216 210 212 206 209 215 214 189 132 222 220 220 220 224 224 141 227 234 225 198 231 193 230 232 223 233 249 239 247 230 262 258 266 362 354 347 336 327 320 316 307 304 304 305 303 298 291 291 290 280
222 220 177 215 179 178 182 211 103 222 220 227 228 224 209 209 104 226 227 217 226 236 235 190 235 218 197 233 200 250 235 246 246 267 266 283 368 347 339 332 323 320 317 320 313 317 314 315 306 302 304 305 304 299
221 220 227 223 223 217 132 229 229 224 221 221 223 219 223 222 227 231 232 222 224 237 231 228 195 226 227 248 247 212 255 235 268 268 296 370 358 343 341 336 327 317 308 308 311 312 303 311 322 324 331 337 323 306
234 222 217 224 225 228 224 224 225 218 221 223 229 228 228 226 227 230 231 229 226 233 237 236 246 247 247 218 257 262 270 284 272 344 363 355 350 340 333 323 317 310 311 307 306 309 307 303 314 319 319 326 321 324
234 235 230 222 228 240 220 237 229 217 213 214 229 228 223 225 234 234 235 221 232 240 247 249 250 214 260 247 279 287 303 346 378 365 349 347 339 339 337 332 317 309 306 304 305 306 306 312 309 310 318 325 318 317
231 235 242 231 220 217 213 221 221 231 235 232 219 219 221 224 225 233 236 247 244 239 245 254 263 277 275 281 290 307 380 371 368 354 350 342 341 339 332 324 320 320 320 316 320 320 319 317 313 320 329 325 326 321
239 235 225 238 240 239 241 232 225 224 235 239 243 243 246 244 245 249 250 258 268 276 274 278 281 287 282 320 375 386 368 372 357 356 346 339 332 325 323 323 325 324 323 322 323 325 325 324 326 328 326 321 320 319
259 246 279 260 257 255 253 252 246 245 245 246 251 254 258 269 276 277 278 278 283 278 276 300 310 333 365 381 371 371 365 358 347 338 331 327 327 331 336 338 325 325 330 338 349 355 359 361 364 366 365 360 360 354
277 288 282 289 286 282 286 290 283 282 268 274 279 281 281 278 278 288 289 299 296 289 342 347 346 372 374 375 370 362 350 337 340 343 345 343 337 337 338 355 362 369 393 437 421 401 372 377 381 382 380 383 396 461
286 288 289 289 286 285 281 278 284 283 280 282 283 282 284 286 289 293 292 324 346 341 348 379 381 378 366 354 344 346 350 351 350 351 349 359 371 392 435 444 392 374 374 372 372 382 389 397 403 407 408 408 406 423

GFSWCAN_2pvu_pres_090.txt.gz
Presure
304 260 228 166 172 182 162 189 169 193 190 191 192 194 199 189 247 236 229 165 192 224 194 228 190 152 195 185 184 140 162 137 158 156 145 116 128 157 205 242 163 181 299 413 423 368 359 354 326 315 299 293 284 305
254 241 263 170 166 195 171 186 192 182 189 194 194 193 207 172 235 229 143 230 219 221 135 229 165 195 189 188 179 170 158 153 159 136 97 156 145 126 214 137 217 180 287 426 386 363 353 174 372 320 299 293 292 294
255 241 212 187 161 188 173 194 192 192 188 192 193 192 206 235 235 228 228 198 222 225 232 202 199 196 191 182 179 161 118 151 129 97 149 109 237 150 147 154 244 180 276 141 423 348 122 356 333 335 302 292 286 287
269 261 237 173 161 168 174 192 194 192 190 192 193 195 202 212 236 234 236 231 223 232 233 195 196 196 180 181 176 174 178 153 154 124 97 156 189 118 192 150 251 234 136 134 136 227 384 339 284 360 311 296 294 288
242 237 223 160 159 168 178 193 178 188 190 192 193 195 202 218 244 238 234 234 235 237 195 193 195 123 187 177 155 156 137 136 151 156 144 171 191 153 137 161 238 226 127 162 345 357 369 397 259 335 328 302 292 281
242 166 170 169 164 167 176 184 174 189 192 192 194 191 205 203 244 238 238 243 240 202 197 189 191 190 188 186 174 162 139 115 134 145 159 152 217 152 135 241 240 131 128 130 149 358 366 400 416 341 331 310 293 285
243 206 161 156 158 163 172 190 180 190 192 189 196 193 201 202 231 201 197 198 194 193 193 190 186 191 182 172 168 151 151 156 161 211 140 217 118 228 201 221 143 254 180 147 197 363 380 440 413 338 336 297 291 281
250 225 156 170 165 166 170 193 180 181 189 184 185 186 198 195 199 193 200 197 190 190 190 193 189 183 154 154 143 153 152 146 133 181 177 184 186 200 229 157 187 246 128 252 148 350 389 413 395 353 334 305 289 280
250 237 163 175 168 177 168 179 189 178 185 185 189 188 196 190 195 195 197 195 195 191 183 183 158 154 152 122 154 150 162 166 136 172 143 141 157 138 239 221 250 236 254 242 310 345 357 396 402 342 327 307 287 274
249 198 201 163 164 166 167 181 164 176 177 185 184 188 195 198 180 182 183 189 181 177 155 159 154 150 155 158 188 160 126 138 223 220 168 121 243 237 198 246 136 256 255 136 249 343 349 328 388 353 335 314 294 284
244 226 181 162 161 170 162 164 191 184 173 187 188 193 191 194 192 183 175 176 178 176 173 146 160 146 172 142 142 158 140 160 194 223 186 201 196 242 212 244 255 250 250 270 246 331 327 342 336 346 337 322 289 284
238 229 178 196 162 158 159 169 182 184 178 185 180 188 189 192 193 194 192 185 165 176 143 171 160 144 141 141 171 150 170 212 184 122 213 233 227 233 213 245 198 192 123 253 115 308 332 331 323 330 323 318 303 290
160 160 177 197 160 152 158 161 178 187 178 180 180 182 186 189 194 189 184 184 149 162 187 166 196 141 136 146 141 202 200 154 207 158 190 194 175 173 240 239 158 223 254 170 252 284 338 319 306 305 320 311 314 305
161 163 161 167 161 168 158 160 171 188 184 167 159 177 176 170 182 165 154 184 192 147 175 184 184 186 150 196 190 145 158 203 215 214 228 229 243 237 199 214 247 172 238 234 241 308 349 330 311 301 294 291 293 286
175 166 153 174 152 171 153 153 168 160 156 151 152 155 162 168 183 170 185 162 174 153 163 171 135 140 143 180 198 205 223 217 200 217 224 236 242 232 152 236 200 233 230 243 237 260 350 337 323 306 297 289 292 289
215 185 162 179 174 154 151 156 145 167 153 177 150 160 178 152 183 178 158 178 157 137 178 157 172 175 171 192 207 213 215 173 210 222 220 223 236 221 242 158 117 247 239 237 228 260 347 327 325 322 312 298 289 306
215 198 157 160 185 154 149 170 169 164 166 168 175 148 176 152 165 147 185 179 197 164 134 162 138 194 184 205 207 209 219 176 228 218 234 235 222 117 226 136 249 256 245 256 269 303 336 321 325 310 307 307 301 290
215 162 142 160 170 181 164 159 163 164 165 161 171 151 178 175 164 178 181 179 176 154 196 190 180 199 205 150 217 216 201 192 231 234 226 204 244 186 187 238 247 230 248 263 288 320 324 329 314 313 306 309 306 305
211 203 164 178 168 174 174 158 190 159 172 173 168 166 165 175 185 185 188 165 144 131 160 183 205 217 215 218 209 210 224 226 231 226 181 223 228 246 226 232 260 239 256 339 374 347 333 321 311 314 304 304 290 292
210 178 183 198 209 204 189 178 194 187 186 169 159 176 189 181 154 178 197 198 180 205 203 212 200 214 215 200 230 218 225 233 226 228 207 241 246 216 238 250 233 239 264 381 381 359 333 316 323 300 311 292 308 281
211 190 190 194 191 208 164 123 190 199 193 125 146 214 194 149 211 167 168 157 171 117 200 214 221 221 229 213 228 221 233 226 221 232 243 231 242 150 248 249 244 257 319 379 366 362 347 326 313 309 302 300 294 292
127 184 199 185 190 187 203 193 193 131 218 183 199 155 185 147 131 154 214 163 198 211 212 212 223 213 226 227 136 228 234 238 155 154 187 242 212 246 222 243 254 283 285 368 362 347 341 339 323 309 301 301 293 296
217 204 206 203 216 207 195 185 205 169 213 167 208 211 200 199 204 199 211 215 203 219 213 214 224 227 225 235 171 230 235 234 224 227 233 217 243 252 249 256 283 307 380 366 347 339 331 318 319 318 315 303 298 294
215 213 178 189 206 186 190 203 189 213 209 199 198 220 207 215 214 210 218 217 220 224 224 229 226 223 223 235 223 227 243 234 223 234 226 240 237 250 257 282 283 393 372 363 355 331 319 316 306 306 303 304 301 303
206 211 208 210 222 216 208 210 219 209 202 218 221 207 221 219 157 209 221 226 223 211 230 224 232 202 135 224 231 231 244 206 237 217 251 246 259 251 293 296 309 377 352 349 339 328 326 321 322 311 315 312 309 297
218 212 219 220 213 168 137 202 216 214 202 102 216 220 223 224 217 216 224 232 232 232 221 201 233 236 230 227 239 211 233 221 237 246 241 241 261 281 339 298 374 354 355 341 331 330 322 314 318 312 308 304 307 315
218 219 225 211 210 214 214 218 184 223 223 223 226 230 195 229 229 225 230 232 225 177 195 227 225 214 236 209 222 236 221 241 251 248 257 265 303 305 291 373 368 353 347 341 332 327 315 315 311 304 305 304 303 304
202 225 229 220 221 221 217 217 221 220 220 229 231 228 220 229 235 237 218 216 220 217 232 225 228 207 233 238 217 237 249 250 252 263 285 257 300 306 385 372 361 348 337 334 335 336 328 322 317 306 304 304 304 306
226 224 194 224 230 223 232 228 229 228 231 218 218 219 230 230 229 216 230 229 228 232 237 237 238 243 248 249 250 249 256 264 274 304 306 297 390 382 378 361 356 338 323 323 323 326 325 322 308 307 307 309 314 307
232 227 228 238 229 233 233 237 227 224 221 225 230 234 234 233 230 228 232 233 238 240 239 240 243 245 247 243 261 265 270 284 273 300 393 382 366 358 352 350 344 339 341 342 334 328 331 335 333 333 335 336 338 338
250 241 237 243 236 238 237 231 233 234 236 233 231 228 231 232 220 235 238 232 245 249 249 239 240 259 253 251 274 288 307 308 307 388 377 367 358 354 353 352 343 341 348 351 350 349 352 355 359 361 360 360 360 362
259 249 240 239 251 250 241 239 242 238 241 244 244 244 244 245 241 247 242 244 251 258 258 261 262 270 295 304 297 304 306 387 383 377 366 361 357 351 356 370 372 368 369 372 396 427 479 438 419 382 368 367 365 363
258 251 245 240 243 247 249 245 243 241 242 246 243 244 247 252 239 257 259 257 259 257 243 267 264 292 297 325 386 386 382 373 372 371 369 372 378 383 404 503 493 415 391 370 380 381 370 361 364 371 382 390 396 397

GFSWCAN_2pvu_pres_093.txt.gz
Presure
615 491 486 346 250 262 255 162 162 125 186 211 202 193 117 195 193 201 222 242 224 140 223 231 223 169 220 152 193 203 188 177 168 159 172 158 166 131 126 155 159 242 252 194 286 401 373 139 344 133 330 349 322 305
319 538 305 296 254 262 162 172 175 167 176 201 206 201 125 198 205 205 242 167 233 226 230 215 226 228 137 197 191 193 180 175 173 139 168 156 167 171 138 164 119 165 206 267 249 403 433 417 137 327 351 335 317 310
519 561 235 239 256 184 165 190 201 179 202 198 202 200 195 194 201 199 252 240 165 224 229 225 217 216 205 201 195 185 184 168 156 174 177 164 106 202 152 125 114 134 252 200 275 376 132 309 197 383 349 350 324 298
397 309 281 246 258 237 168 167 173 161 197 196 200 194 194 195 200 215 240 144 227 231 222 229 238 219 201 196 198 190 187 156 142 161 161 146 176 225 163 224 141 188 218 239 144 283 131 124 145 363 271 336 341 301
293 291 272 243 164 251 214 167 169 170 199 200 198 192 198 195 196 212 238 239 240 234 238 233 227 198 192 195 196 190 182 165 175 157 122 201 194 149 145 175 167 199 175 170 259 162 132 125 148 366 369 275 336 311
306 256 269 261 193 169 215 163 173 189 181 200 196 189 193 194 196 209 242 245 230 232 235 246 203 197 198 190 193 193 171 155 172 123 155 220 208 153 123 196 227 239 189 142 145 270 119 118 123 361 351 351 350 338
292 271 254 250 231 161 190 156 164 170 193 201 191 192 193 196 196 206 234 248 240 240 241 199 197 198 193 189 186 169 146 166 144 128 114 162 204 185 225 183 212 225 199 132 257 253 290 366 123 360 376 372 345 340
264 256 255 234 219 193 200 162 166 169 188 198 172 189 194 194 195 209 205 237 234 202 202 198 195 190 194 187 174 166 154 150 140 158 149 185 194 161 192 179 237 199 220 252 248 243 283 370 230 410 381 407 350 338
263 252 234 242 207 172 164 167 169 168 169 187 186 187 194 190 196 194 205 203 203 198 201 196 195 194 187 157 169 147 163 144 144 153 138 147 230 143 135 212 152 149 226 156 240 263 278 349 362 415 366 338 348 335
265 257 241 234 181 169 164 161 159 163 169 183 191 189 180 185 190 194 195 199 192 192 195 195 169 185 153 169 150 144 150 149 161 139 185 148 216 188 157 180 221 245 230 234 246 243 274 333 342 365 375 354 339 327
254 232 161 226 168 163 195 162 173 172 169 169 184 186 185 190 193 195 194 197 200 196 170 177 168 172 174 167 171 156 152 147 151 126 148 163 166 163 197 218 201 160 232 223 258 268 254 364 340 346 330 344 332 324
253 230 242 224 163 164 162 159 192 170 170 165 177 189 181 184 190 193 197 197 193 197 198 157 172 157 164 171 158 146 139 145 170 147 148 144 218 191 192 239 246 231 174 236 253 252 258 374 354 348 322 321 317 328
255 232 229 226 162 164 161 161 174 174 161 163 176 191 182 184 184 194 195 200 188 193 186 170 171 159 190 155 158 154 130 153 164 191 154 192 169 202 223 229 222 215 228 238 247 251 249 370 369 334 318 307 305 306
253 240 230 214 202 162 194 166 170 162 160 166 175 181 180 187 179 188 187 181 183 152 184 170 192 149 162 174 195 157 148 149 190 183 205 145 155 230 221 232 131 236 151 239 241 255 261 297 368 356 326 305 300 290
241 238 228 212 194 160 179 161 166 190 167 167 162 177 175 177 188 186 187 184 181 192 178 159 180 165 149 157 150 186 183 167 202 198 190 224 213 227 225 239 223 223 235 194 247 246 255 287 373 353 352 320 306 296
238 232 227 185 204 164 163 161 180 187 184 168 165 173 166 164 161 161 188 164 177 176 154 189 182 163 181 155 148 148 145 171 192 191 218 196 228 164 235 244 127 211 232 234 235 247 254 275 375 349 345 328 319 304
240 228 227 211 201 153 170 175 174 188 185 168 167 169 153 153 151 151 152 176 139 190 167 153 195 190 193 165 152 175 211 194 202 194 225 230 217 235 181 221 219 138 226 129 237 263 251 278 367 361 344 329 316 311
228 226 220 214 155 174 166 155 134 160 155 149 172 154 160 171 169 172 160 148 176 145 143 177 144 175 187 205 165 189 180 213 222 225 204 231 226 229 240 236 229 228 233 169 234 252 257 285 384 360 340 331 317 311
220 219 218 216 204 169 186 165 165 196 183 153 152 169 172 179 172 172 156 139 185 162 190 177 184 176 193 192 176 207 207 205 219 217 232 229 234 230 249 237 182 234 233 240 241 256 262 289 376 366 346 332 315 309
216 218 213 207 207 175 144 192 185 162 163 166 166 184 184 165 169 146 184 161 197 172 133 124 166 176 175 212 184 214 217 229 225 219 218 232 240 247 234 226 246 237 244 249 252 257 280 286 384 377 356 335 325 314
217 216 216 212 202 197 201 200 149 157 149 187 186 177 186 143 201 208 198 130 214 117 161 130 164 193 191 152 207 213 213 222 222 219 232 221 236 229 234 227 236 247 240 247 256 257 350 397 382 363 361 344 335 317
210 215 215 214 208 199 203 204 199 180 203 189 203 204 153 193 197 204 187 173 142 208 199 202 208 204 216 210 220 215 225 224 151 233 241 240 225 239 222 236 225 238 247 248 252 288 400 394 374 358 353 339 342 328
213 214 166 170 210 204 177 168 109 158 148 184 141 196 188 177 203 169 182 201 202 175 210 212 213 201 210 213 217 218 222 225 187 234 244 236 240 218 235 246 242 243 248 257 264 287 408 392 373 354 342 333 330 319
212 216 216 206 213 195 214 201 201 206 168 203 205 145 195 201 218 167 156 191 211 219 213 204 210 228 208 226 220 221 204 201 241 231 223 230 220 237 245 238 238 251 256 252 285 381 394 377 361 357 347 326 318 313
220 198 220 212 181 170 176 214 193 206 212 191 189 217 203 195 202 217 213 218 204 110 228 227 211 226 212 240 228 219 237 246 217 231 227 236 236 248 242 250 252 257 252 263 380 395 383 371 353 333 342 324 315 316
220 213 218 217 213 206 216 212 202 200 207 202 215 210 211 222 208 216 206 212 221 218 212 223 226 219 230 217 220 243 211 239 224 234 243 226 245 246 253 251 253 255 272 381 387 381 369 357 352 336 327 320 318 316
218 210 212 216 211 215 224 218 220 218 219 220 141 209 220 220 217 223 205 209 211 222 226 227 223 229 235 243 225 214 228 235 223 226 247 247 242 255 254 258 256 274 382 381 385 372 361 356 348 340 334 329 322 318
221 224 218 208 212 212 211 219 213 212 209 221 223 216 217 215 226 223 224 225 223 220 225 232 168 239 228 216 236 241 236 213 244 250 248 252 240 255 242 258 282 405 397 383 373 364 354 351 344 339 337 324 330 331
219 222 232 221 221 222 221 222 224 222 223 227 227 227 219 205 226 225 233 235 238 241 226 233 229 224 238 230 238 241 240 249 245 252 251 256 259 266 265 292 404 393 384 375 370 365 359 352 353 343 323 338 335 333
239 234 223 232 226 225 227 231 222 225 225 224 227 221 220 215 225 231 235 234 236 232 227 238 235 233 214 233 242 250 236 253 240 259 253 261 250 269 412 397 392 380 378 377 367 361 363 363 362 360 355 350 345 345
227 231 225 239 239 224 231 225 236 233 237 238 233 227 232 234 236 239 239 236 226 226 222 236 235 247 250 249 248 248 248 260 259 258 252 264 347 403 392 385 385 382 380 378 377 376 376 380 385 387 389 387 382 377
232 229 230 228 239 235 225 229 231 228 228 230 226 219 234 231 229 232 236 244 248 249 251 248 224 238 241 240 261 261 262 262 216 261 276 406 400 397 396 397 397 393 394 397 441 486 416 367 363 360 363 366 367 366
237 228 229 242 240 246 243 238 245 241 246 238 239 239 235 241 238 245 248 247 247 247 239 239 253 261 263 257 259 266 247 268 269 406 405 404 406 408 401 421 503 455 395 384 378 371 365 364 368 374 379 382 387 391

GFSWCAN_2pvu_pres_096.txt.gz
Presure
367 392 455 632 389 349 295 272 257 266 221 217 205 205 186 178 200 203 176 157 248 228 195 224 218 232 229 225 225 205 194 194 202 184 171 169 141 141 181 131 210 181 217 180 244 224 275 386 366 367 216 259 329 326
374 386 466 240 373 354 265 255 269 257 228 215 209 127 200 192 162 193 192 213 234 236 223 231 158 218 225 226 223 141 190 199 182 182 168 173 147 159 159 99 146 190 135 245 139 254 284 323 397 277 128 151 174 324
391 402 479 619 322 320 265 271 264 230 219 207 196 174 151 205 201 198 202 167 248 233 231 236 239 204 216 224 218 198 196 193 187 190 165 169 175 168 167 157 168 177 220 131 233 244 165 343 376 371 139 126 375 329
397 406 490 620 323 264 264 255 241 226 217 211 196 178 204 207 189 170 206 180 238 180 232 239 186 168 235 223 208 193 196 193 190 176 165 161 158 156 180 178 195 163 237 174 245 254 189 130 342 360 132 124 287 349
399 416 407 341 284 254 267 242 170 172 214 179 186 208 201 192 187 178 207 248 253 233 235 226 234 227 233 216 196 189 196 191 199 121 158 160 164 116 150 169 155 161 219 166 237 222 228 182 355 223 347 142 286 230
406 493 311 262 271 268 154 242 228 214 170 172 173 176 206 204 197 186 204 247 239 228 232 234 235 236 233 202 191 196 188 187 175 159 140 169 120 128 169 138 230 139 159 168 237 246 224 271 312 389 357 323 351 239
521 493 281 272 269 208 164 180 172 164 211 182 175 198 193 202 194 197 202 234 240 241 237 232 231 244 212 197 201 194 187 182 154 166 161 146 159 139 167 166 129 157 175 241 221 246 239 273 303 405 368 326 314 340
508 417 317 244 269 250 171 163 197 179 217 170 173 205 205 197 195 201 199 213 240 190 238 239 238 208 200 199 189 196 167 172 145 158 150 170 150 140 158 190 147 201 203 219 238 233 242 267 293 391 416 388 361 339
396 425 315 252 214 262 240 183 194 194 175 172 177 191 202 194 196 199 202 197 220 159 228 213 201 198 200 188 199 180 159 188 151 151 159 149 143 178 149 166 159 207 235 212 236 209 237 259 280 366 437 422 371 389
488 325 297 275 269 219 172 161 170 168 161 173 187 178 201 190 195 199 196 194 208 208 207 202 200 200 191 164 175 162 152 147 197 155 137 151 171 140 163 150 157 121 236 222 230 237 247 258 272 295 383 416 399 388
342 289 287 218 237 169 184 164 185 164 201 166 169 175 194 195 185 185 192 195 194 189 199 199 196 184 168 185 158 151 149 159 158 143 151 137 182 165 142 168 159 231 235 163 195 229 229 247 268 278 211 135 343 349
304 294 250 237 236 239 171 178 163 184 163 158 161 174 183 188 190 202 191 187 188 194 190 193 200 200 182 196 168 154 198 154 151 151 146 165 139 147 159 142 217 192 212 229 223 234 244 232 246 264 184 330 347 331
268 277 268 257 239 228 179 219 167 162 161 164 168 162 177 177 176 177 184 185 188 195 196 196 191 194 191 168 151 186 156 174 150 148 155 153 147 212 149 200 161 219 168 201 150 236 243 232 251 259 300 381 354 330
271 272 253 245 229 229 224 171 168 167 167 174 167 157 166 177 178 185 177 191 196 189 189 184 175 189 190 159 184 156 154 175 142 139 154 140 157 149 192 225 210 162 246 220 226 232 227 237 240 254 250 383 369 351
275 263 255 239 216 227 172 174 171 165 180 176 177 168 167 178 186 189 187 187 193 171 188 194 186 185 173 152 141 131 138 179 151 158 158 154 175 160 186 230 226 221 238 243 227 240 112 229 135 258 260 322 368 357
265 244 240 231 221 228 164 171 197 183 165 158 161 168 184 171 174 185 178 193 195 170 186 180 151 180 150 139 180 184 161 148 134 161 209 180 151 160 229 216 228 232 232 228 230 241 242 236 250 249 255 290 373 353
253 239 242 224 226 229 161 172 189 175 174 174 185 167 172 180 169 172 166 170 171 167 160 180 157 137 141 191 165 182 207 163 164 139 160 151 222 215 156 216 229 239 233 235 225 110 242 214 244 240 271 300 372 358
220 240 238 206 227 175 211 204 204 168 164 160 162 197 173 193 165 182 170 147 143 167 152 149 133 157 180 151 170 167 158 155 206 140 207 209 217 176 218 232 222 227 230 229 237 228 238 249 249 258 266 323 398 356
229 239 235 220 220 226 157 206 203 175 166 168 163 174 174 171 199 195 181 137 159 164 159 162 142 162 170 127 145 173 188 193 221 201 212 135 230 220 207 234 227 241 226 225 243 229 247 246 239 258 257 375 399 375
226 224 228 233 225 221 212 165 197 200 161 172 150 178 179 154 155 147 196 172 153 177 189 173 143 157 136 188 187 211 193 187 218 217 220 206 226 232 226 222 235 226 237 214 240 239 249 245 238 258 289 397 402 377
222 225 227 210 219 212 200 197 200 197 197 199 198 181 159 190 185 172 174 128 197 133 189 175 189 132 135 188 169 200 200 218 188 227 204 231 217 223 217 235 227 177 230 243 232 244 254 249 259 255 310 408 402 376
221 218 222 217 215 212 207 200 207 199 199 183 180 179 184 185 163 177 181 188 192 197 208 146 176 179 204 209 203 161 207 184 225 199 229 222 215 211 231 228 222 214 237 239 246 243 249 249 261 261 372 414 400 372
220 217 217 218 216 215 211 210 203 199 198 184 183 138 174 161 139 188 134 195 207 148 127 138 148 184 171 212 194 216 213 214 198 222 135 217 227 237 237 171 235 229 242 245 239 242 252 255 260 314 416 408 390 373
221 222 218 216 193 211 211 202 206 209 210 137 206 127 153 183 174 201 172 211 140 164 205 204 181 179 136 218 215 212 228 218 229 217 236 214 232 237 213 230 231 245 237 240 231 253 253 268 308 369 408 400 376 356
224 222 220 217 212 217 210 183 151 155 192 154 138 206 207 139 139 199 214 156 217 204 220 195 208 214 221 220 230 222 206 229 234 235 239 239 249 157 241 224 250 235 247 243 261 255 273 307 341 394 396 388 371 358
222 214 218 216 214 212 200 210 213 211 198 210 173 184 175 211 203 172 208 208 171 176 181 188 199 212 229 217 231 231 220 223 223 193 230 222 233 223 248 242 240 256 240 231 252 266 276 349 399 396 391 383 367 358
200 213 210 213 222 221 215 211 187 197 215 203 214 208 218 208 183 213 211 212 212 214 215 217 209 216 216 216 227 174 236 233 198 239 232 229 242 245 227 239 234 240 276 259 292 269 348 412 395 388 386 375 369 362
222 223 224 220 213 224 220 221 207 225 219 214 211 213 224 197 218 218 213 221 221 221 216 214 214 228 225 219 221 238 155 238 242 214 237 245 240 229 250 241 214 270 256 237 281 369 395 394 388 387 370 369 357 372
229 220 225 220 223 222 213 227 221 222 224 221 220 222 217 221 224 223 223 211 218 208 226 233 235 237 220 238 238 153 237 225 232 227 246 237 248 229 248 240 266 248 302 306 410 410 402 395 388 380 372 366 364 360
227 232 229 225 226 228 222 225 218 221 217 226 218 219 225 216 208 217 229 229 235 223 229 231 224 237 240 169 232 227 197 238 248 247 228 236 231 240 267 252 274 274 341 398 406 407 403 398 395 392 391 387 384 382
234 233 238 233 227 226 231 224 225 226 231 224 233 234 232 231 233 236 227 228 231 233 236 224 238 224 232 234 228 249 251 237 249 237 247 247 255 259 277 273 355 408 422 423 416 418 421 433 475 419 385 379 375 373
241 229 243 241 230 244 232 232 233 241 238 230 225 240 238 234 232 236 237 222 214 228 224 239 247 235 237 249 231 237 228 242 242 246 239 263 245 286 379 377 433 439 449 513 490 405 387 377 370 226 354 358 381 384
242 247 245 239 232 235 235 234 231 241 238 232 232 229 231 231 217 232 231 229 230 235 232 243 190 230 233 249 230 251 243 252 246 264 242 359 274 399 456 522 492 446 412 389 385 379 359 354 374 408 448 553 557 557

GFSWCAN_2pvu_pres_099.txt.gz
Presure
265 262 391 395 425 567 359 267 269 276 257 255 247 241 229 198 205 128 143 215 204 201 237 233 193 142 126 130 230 196 223 205 195 194 183 180 182 184 163 173 144 143 166 189 224 227 249 152 132 140 388 367 346 204
274 337 393 395 430 566 307 319 275 239 278 255 167 239 226 215 166 179 185 169 204 200 216 232 159 226 205 235 224 223 191 139 192 190 182 182 182 181 184 149 97 144 148 140 177 220 174 272 250 403 358 378 355 336
267 299 392 391 435 560 309 253 255 237 251 233 255 240 216 204 171 141 202 191 202 213 161 179 164 231 238 151 146 224 198 196 193 187 187 186 176 158 160 155 171 131 158 153 162 177 203 167 159 407 400 350 339 363
294 408 387 379 441 380 256 273 255 283 255 246 247 225 171 171 165 181 205 203 195 238 231 229 227 237 219 226 228 226 214 197 191 193 179 177 170 172 158 140 119 151 126 139 169 210 223 134 275 267 295 380 345 335
395 398 401 406 447 449 270 260 278 216 254 226 238 216 208 196 124 188 204 197 195 239 239 215 186 248 213 221 141 230 203 189 189 189 184 170 168 174 158 126 179 182 181 166 164 222 208 253 248 272 292 376 355 348
420 564 652 451 455 348 301 242 260 256 249 244 230 144 176 214 130 148 142 193 197 246 234 191 241 233 218 223 227 228 190 190 191 172 175 168 164 158 144 121 120 150 125 157 145 135 229 228 258 266 182 402 361 347
514 510 669 526 459 361 297 217 216 252 253 235 218 214 199 178 208 204 194 194 188 217 243 243 237 232 223 227 231 232 197 193 184 173 171 178 178 157 152 161 144 145 182 187 155 175 221 220 252 273 276 445 437 349
546 563 637 423 313 232 250 277 158 247 248 230 213 196 208 188 210 195 200 195 150 255 245 234 236 233 226 238 230 201 197 188 181 183 168 180 134 153 146 160 169 152 145 134 157 235 196 243 240 269 266 260 516 395
555 532 537 434 511 253 277 269 196 173 197 186 203 207 192 182 205 201 198 195 201 250 246 247 232 229 235 241 207 196 187 199 182 159 170 162 144 144 150 155 166 165 157 169 149 213 227 233 243 236 246 271 347 391
556 581 440 471 300 253 217 170 253 174 172 226 174 175 167 180 206 206 195 194 193 234 243 238 239 231 223 202 198 192 198 172 160 187 159 171 166 136 152 146 149 233 160 218 210 162 227 230 237 258 261 282 273 390
571 499 469 473 292 293 242 218 178 187 225 172 170 159 179 192 202 198 188 195 198 197 237 232 218 207 203 198 198 172 184 166 155 148 150 144 151 153 153 149 162 147 139 213 224 168 215 225 245 232 202 251 274 317
487 464 542 253 251 221 221 165 169 167 202 172 183 187 166 187 186 181 186 190 195 195 196 189 194 202 201 196 197 200 189 181 158 156 202 164 162 143 166 202 158 163 154 231 227 223 232 229 237 229 240 136 149 267
468 541 583 251 287 211 254 170 185 232 179 191 186 170 160 173 194 189 185 179 196 193 189 189 194 191 197 191 189 189 156 174 159 190 147 160 124 138 179 141 198 196 207 146 219 219 206 235 217 238 238 212 249 262
558 531 308 212 276 269 231 241 229 230 216 191 176 165 159 177 181 195 181 189 189 194 188 186 187 188 179 182 185 193 171 171 187 204 175 149 154 156 139 159 157 190 216 219 232 223 211 227 229 237 243 208 264 271
508 258 293 233 278 257 252 160 160 188 179 164 173 165 192 176 179 186 180 174 189 191 185 189 197 188 189 187 198 168 185 190 160 156 180 171 184 147 155 169 151 226 197 204 233 223 232 183 229 237 188 234 251 255
273 258 212 278 236 247 241 161 166 179 180 182 162 194 197 161 160 170 174 176 191 188 176 173 183 198 201 187 159 197 153 156 143 154 175 162 192 161 152 217 188 219 225 194 231 216 229 222 247 226 238 240 250 263
245 273 231 262 250 250 229 239 161 200 172 158 167 174 202 162 161 168 185 174 179 173 177 174 165 177 171 180 158 151 187 161 153 121 144 138 153 182 215 200 213 236 212 198 238 242 232 229 208 195 238 256 248 266
259 279 268 211 245 239 166 238 219 174 200 173 179 205 173 193 177 169 188 186 170 169 171 186 182 170 154 135 155 174 183 122 156 206 185 178 183 216 171 217 234 211 223 233 231 217 228 245 217 264 243 232 216 266
274 266 235 242 242 229 242 190 168 166 222 174 196 201 175 175 176 175 185 165 182 167 163 147 152 158 134 155 163 132 170 163 173 134 144 172 178 175 202 177 210 194 228 238 212 233 192 234 231 242 245 264 232 264
251 243 248 244 236 234 234 224 161 187 163 149 183 184 203 171 191 183 178 166 169 186 176 169 134 146 166 192 184 169 172 160 210 172 161 176 217 192 207 230 158 214 232 229 239 221 202 238 226 249 242 225 241 298
262 211 245 244 239 236 231 214 200 168 210 163 188 200 205 198 195 168 166 177 156 204 182 164 189 158 143 191 174 190 211 161 207 189 202 221 166 210 229 236 218 233 238 227 211 234 228 223 243 244 254 262 257 306
246 237 233 233 231 232 232 219 218 221 213 204 149 196 196 165 148 175 178 154 186 133 179 153 151 198 137 178 177 167 177 193 201 190 151 223 204 235 229 220 239 234 215 224 233 215 244 210 240 247 260 275 318 313
234 234 226 230 232 232 185 223 206 190 219 195 180 200 148 195 147 199 192 162 201 142 160 175 151 141 133 179 176 130 165 183 205 202 219 198 229 223 215 239 233 236 225 219 231 242 220 239 266 255 262 296 327 322
231 229 231 213 219 227 236 196 200 217 223 141 206 202 197 200 192 127 182 168 206 210 204 172 156 144 198 181 202 184 174 185 200 194 213 230 221 207 235 228 212 236 221 238 234 238 239 241 266 243 280 308 319 343
231 225 213 222 212 220 228 225 223 199 211 217 216 146 209 206 151 146 203 199 198 142 150 156 203 201 201 136 171 174 163 224 237 230 226 221 233 240 236 221 229 219 237 238 245 248 246 259 250 303 279 315 354 373
230 227 226 223 221 208 198 213 214 218 217 215 181 212 212 198 205 192 146 172 167 178 200 173 177 167 222 209 207 214 227 209 204 229 229 203 226 245 237 211 232 236 226 235 194 246 257 273 275 278 301 361 365 393
218 218 227 215 217 219 211 213 196 174 197 199 209 212 144 178 208 214 156 199 159 190 202 182 207 213 223 223 222 216 220 220 229 215 223 240 239 217 232 217 244 213 242 228 253 252 252 311 279 341 373 376 393 387
222 212 216 207 211 216 211 208 217 219 143 160 220 216 203 207 185 216 216 214 219 204 215 212 215 222 223 226 226 201 228 237 246 226 247 242 247 218 224 230 231 247 224 215 253 252 276 292 387 384 415 406 401 396
224 221 220 207 217 210 210 219 217 219 220 220 203 222 212 220 220 107 214 218 215 218 220 216 215 218 220 196 229 228 217 235 228 243 214 244 220 245 218 233 241 245 240 255 239 280 306 397 433 430 425 421 419 415
223 228 221 223 222 213 211 221 216 214 213 220 220 222 217 220 217 218 215 214 214 215 218 219 216 212 227 227 237 225 231 242 237 236 248 230 221 221 247 246 228 247 265 245 286 270 463 482 494 472 448 407 394 385
238 221 221 228 223 230 225 225 225 222 218 225 229 227 220 217 218 218 219 224 220 222 227 233 231 218 210 214 231 238 238 244 250 230 232 215 241 250 252 253 275 257 278 279 302 470 438 418 405 394 376 360 358 368
244 247 232 214 238 233 240 231 218 232 221 223 222 225 225 229 229 224 224 222 215 218 226 231 234 238 242 247 247 239 231 239 245 243 251 249 249 252 263 261 274 284 291 421 429 411 401 387 366 351 354 563 559 551
237 242 237 231 237 232 231 238 234 231 237 238 235 233 233 241 238 237 239 239 239 241 243 239 246 245 241 240 237 239 252 253 250 246 241 242 258 265 279 281 287 305 429 413 399 382 367 360 352 343 462 513 510 511

GFSWCAN_2pvu_pres_102.txt.gz
Presure
232 234 259 288 313 348 418 455 357 335 313 285 219 257 240 216 230 239 229 214 164 177 189 155 175 235 237 230 234 164 143 171 210 204 193 188 189 185 188 170 171 172 155 143 154 156 169 140 233 289 207 401 392 343
239 251 273 275 318 419 429 380 323 268 279 256 234 206 264 154 193 236 218 181 149 136 206 240 234 236 231 239 217 231 140 194 197 192 188 189 190 186 186 142 191 181 146 143 153 138 158 191 150 195 297 294 355 388
254 259 267 277 362 414 441 374 325 296 271 263 252 240 262 214 239 219 176 209 182 138 232 220 233 228 237 228 229 234 171 224 154 134 189 187 188 188 189 174 149 148 160 183 122 148 201 159 156 142 189 223 252 401
266 281 267 282 350 447 440 355 308 254 260 232 206 229 247 230 228 223 196 213 181 205 231 200 220 230 150 227 144 175 176 204 201 193 189 190 185 178 178 152 165 192 136 134 123 188 130 157 143 249 204 194 284 412
294 280 287 374 431 442 433 322 310 285 272 246 239 250 233 240 226 208 216 155 182 155 210 207 237 233 180 227 233 225 204 217 202 190 186 185 180 173 166 158 185 162 140 160 127 152 165 191 161 219 254 225 262 374
279 273 278 440 459 467 367 318 316 274 247 255 252 241 171 238 154 172 200 192 133 206 204 221 237 232 194 229 211 219 233 220 200 186 185 180 178 176 169 169 162 138 128 228 155 150 158 138 233 232 237 143 263 307
297 297 349 493 557 657 560 350 300 273 240 206 211 244 239 228 225 207 125 212 180 196 202 233 232 229 207 147 222 223 229 214 191 193 178 185 179 172 150 147 161 148 223 162 234 141 128 160 242 223 212 270 225 292
308 300 533 566 555 520 672 367 315 266 269 247 211 245 238 229 216 207 205 193 116 127 197 225 243 238 246 185 214 222 229 215 192 185 180 177 163 202 160 142 131 173 156 165 176 200 151 193 234 207 223 239 253 276
303 428 566 563 560 508 672 349 320 219 243 267 252 241 234 200 197 178 179 204 201 135 196 252 173 240 237 212 222 220 238 215 192 182 170 170 169 188 172 158 134 143 162 159 148 169 163 224 224 210 215 263 223 224
329 664 545 608 528 642 452 347 316 241 234 248 251 243 176 173 175 199 210 202 197 198 208 249 246 238 235 234 232 232 244 196 191 169 176 167 192 151 165 180 146 105 151 150 191 167 181 232 235 227 226 215 233 240
nan 671 523 543 553 431 461 339 259 228 269 254 250 183 232 223 185 196 206 202 196 157 204 251 239 247 227 237 236 240 196 197 177 198 185 165 187 157 151 192 134 157 139 154 200 198 204 226 212 216 232 230 243 256
640 624 535 545 521 434 518 354 294 251 225 260 239 191 201 190 185 197 202 192 189 190 189 189 233 234 232 234 221 200 194 196 194 177 187 186 160 157 150 169 152 166 221 181 163 180 221 221 244 215 202 225 237 224
541 537 546 566 417 466 295 301 254 240 241 252 240 204 176 168 165 205 194 194 193 194 195 194 192 188 213 197 195 194 182 187 167 165 186 194 156 156 145 164 202 148 151 207 227 178 202 225 222 223 204 239 229 225
572 593 503 406 480 425 309 276 265 265 160 184 176 194 174 198 206 187 201 194 201 191 189 190 192 189 191 195 184 188 185 186 191 181 157 157 180 162 153 153 152 149 192 159 170 213 244 180 217 210 235 232 217 216
502 447 411 487 514 362 287 277 225 240 167 246 213 149 156 166 192 150 205 196 193 197 190 191 191 193 184 185 196 190 192 189 192 169 178 180 151 168 179 172 153 158 198 165 169 180 246 234 222 234 237 205 219 213
430 390 468 511 430 305 214 276 259 253 172 168 165 207 152 165 181 173 185 194 198 210 205 190 186 186 185 189 186 176 191 188 168 154 189 160 133 130 202 140 165 155 198 174 158 216 233 227 233 202 213 224 211 224
446 488 508 447 262 244 233 235 258 242 156 235 170 220 175 161 215 177 174 180 197 177 168 189 195 177 175 174 174 195 167 198 164 156 169 134 147 160 197 154 160 147 156 159 229 174 221 223 219 188 224 225 241 247
510 460 441 340 258 241 259 217 218 227 162 237 170 179 181 166 187 195 198 192 187 173 170 206 189 190 182 161 166 170 167 194 177 133 136 162 186 152 192 121 177 230 227 227 202 177 236 220 238 246 214 196 221 222
455 441 328 253 238 197 236 239 255 159 174 152 182 190 198 169 180 181 187 160 166 202 187 179 180 165 190 182 185 132 168 171 142 128 168 156 180 155 141 160 147 190 204 215 233 157 233 249 224 233 219 233 209 267
439 358 272 241 241 201 240 251 246 209 163 157 160 206 204 176 174 182 189 173 182 168 197 186 168 168 191 143 158 157 181 129 173 161 150 160 172 148 148 211 234 226 232 218 239 227 226 229 247 211 214 225 234 229
307 246 237 222 206 245 233 240 230 239 241 165 161 162 158 174 179 173 179 190 170 195 168 189 161 164 172 133 207 186 134 142 178 170 166 203 142 114 170 144 223 238 233 202 214 236 246 253 242 212 237 216 215 220
270 240 263 231 222 247 223 239 228 235 239 166 170 164 168 166 161 179 187 186 163 199 171 190 193 168 145 177 184 127 126 158 144 177 162 192 183 205 224 221 219 235 225 196 230 244 225 243 205 205 235 244 253 255
243 266 244 226 213 234 204 234 232 237 217 163 233 201 175 157 195 175 168 186 170 189 178 159 147 163 146 162 159 192 199 124 148 140 175 163 226 218 176 191 171 201 232 226 232 248 221 203 201 209 247 260 255 271
239 256 236 216 231 241 209 224 232 233 230 212 225 225 150 162 161 141 189 177 173 141 154 191 164 173 142 123 207 185 168 189 196 154 193 175 201 227 225 232 216 222 211 237 247 232 252 188 262 253 258 252 273 268
245 240 255 215 243 240 237 221 226 238 217 218 227 225 179 190 173 177 194 158 206 190 135 169 199 126 138 203 190 195 196 215 204 160 187 212 222 229 224 231 213 232 225 231 246 205 221 263 238 261 246 267 276 292
237 240 243 242 236 234 229 223 230 230 217 217 223 220 214 215 207 208 208 208 206 184 192 172 179 199 208 203 199 206 177 153 156 197 188 230 225 229 216 221 202 221 239 239 257 243 256 244 229 263 246 280 280 348
240 238 222 243 241 232 225 219 221 223 217 216 222 218 151 184 200 186 180 182 168 212 144 210 195 210 168 159 175 192 170 221 168 169 222 215 231 220 227 225 229 245 227 238 254 261 238 223 254 268 275 279 438 448
235 232 234 228 237 234 224 226 226 224 225 226 224 221 225 223 212 180 185 202 208 217 222 210 153 209 172 204 205 221 162 217 225 200 227 229 217 234 224 240 238 243 243 253 235 250 227 251 261 280 291 492 483 437
246 239 230 226 233 235 229 230 231 214 223 224 222 221 219 151 150 224 153 223 215 214 225 222 223 154 221 213 220 215 211 215 231 230 220 233 221 235 244 243 219 250 242 235 252 240 250 254 248 279 455 433 411 392
232 238 239 237 235 229 223 225 222 229 230 225 218 215 213 211 210 214 217 218 220 219 222 221 196 187 220 219 224 226 229 224 217 230 230 240 247 243 248 225 248 253 240 237 263 245 267 242 295 274 416 394 380 367
229 234 230 221 231 226 232 229 225 225 223 218 223 228 227 212 215 219 220 222 225 225 220 216 224 209 220 227 227 228 232 234 226 239 241 244 251 222 245 251 254 237 249 260 240 270 243 297 384 393 382 371 370 367
233 231 229 236 228 214 212 233 231 231 230 223 220 223 213 219 221 217 214 213 215 217 223 226 227 216 230 226 224 225 233 241 240 249 244 229 241 253 255 241 238 264 266 262 266 276 294 406 386 373 364 351 363 371
233 239 232 237 228 232 232 224 220 226 224 218 219 222 222 225 229 230 227 227 220 208 207 224 226 228 233 234 240 238 237 241 241 229 251 255 242 249 241 243 247 257 261 271 286 364 406 380 364 363 350 332 365 365

GFSWCAN_2pvu_pres_105.txt.gz
Presure
232 226 206 208 205 239 240 259 369 430 342 317 228 271 247 226 264 233 179 245 240 222 206 198 193 218 214 239 138 234 150 236 219 214 136 198 194 186 190 192 190 164 175 192 157 140 159 153 164 179 273 142 147 147
223 223 245 235 274 223 297 292 389 323 348 294 277 270 240 261 206 152 246 246 228 181 180 184 218 210 233 234 230 233 230 237 210 136 157 172 188 188 193 192 186 154 175 161 178 144 158 141 141 130 244 278 147 146
213 204 240 249 219 207 236 287 329 305 351 278 254 261 207 248 207 241 247 240 224 180 183 175 192 215 238 226 233 233 209 219 127 209 133 190 192 192 188 184 179 161 174 189 143 165 137 154 166 188 163 141 142 250
230 215 236 211 259 249 275 283 317 361 342 276 239 227 264 239 253 191 246 231 216 185 199 185 215 178 238 163 237 226 232 208 226 143 197 191 193 191 185 184 178 183 164 153 214 141 130 156 138 192 206 230 222 164
245 230 260 243 248 235 282 290 310 354 345 288 290 209 254 243 252 242 243 137 211 188 189 210 126 225 236 235 237 169 208 223 221 212 197 190 189 191 181 181 187 180 161 163 150 129 160 166 114 148 238 186 210 231
264 252 212 232 298 240 294 282 306 380 349 294 280 278 266 217 238 131 241 171 216 190 188 208 228 138 228 180 205 138 131 223 230 215 197 188 190 189 188 178 182 162 169 145 133 193 201 215 116 120 141 242 232 124
261 241 262 262 256 342 296 350 382 428 353 330 254 219 258 241 251 242 238 168 181 198 192 217 203 219 236 201 224 156 215 223 234 227 192 186 188 189 179 168 194 176 185 139 190 221 164 140 160 218 207 222 222 214
300 258 241 258 303 301 303 345 627 665 363 325 249 208 212 251 257 244 200 223 198 201 186 201 175 220 241 216 222 228 229 220 231 217 189 192 183 184 173 179 174 152 192 148 145 185 156 243 150 173 193 204 233 239
278 288 256 275 382 303 358 540 582 720 364 324 280 244 248 248 251 242 226 178 203 190 218 206 202 212 234 235 154 204 228 221 229 208 191 187 177 183 174 177 193 190 129 147 142 170 169 214 161 227 135 196 230 226
267 243 267 321 328 316 364 573 557 692 363 320 269 276 258 245 195 186 169 179 204 173 210 200 210 226 228 253 221 236 234 219 229 200 188 188 179 193 174 178 183 148 166 132 157 129 125 213 160 161 246 244 228 226
291 279 314 403 311 426 638 574 526 600 364 331 294 231 231 244 245 207 178 210 209 185 193 187 200 221 227 234 235 223 218 236 238 193 192 183 190 191 162 171 177 154 167 156 211 156 154 205 209 228 208 244 229 199
292 300 318 325 443 625 567 538 503 482 376 321 281 225 166 245 241 258 197 200 194 188 159 188 197 235 256 253 232 228 227 240 210 189 188 193 190 157 199 140 170 164 144 146 150 230 172 158 157 190 254 252 219 234
307 324 335 378 532 567 530 513 519 451 362 262 249 219 259 184 245 191 173 200 165 196 195 194 202 240 248 234 235 227 240 207 185 192 185 174 198 194 182 201 173 150 135 126 166 161 198 171 204 242 239 191 225 241
317 320 359 544 518 518 555 511 483 397 351 262 256 151 260 246 183 235 198 175 193 202 199 203 190 189 218 226 225 234 215 190 193 186 185 179 196 192 161 146 167 197 151 161 165 156 151 160 164 213 238 226 235 222
360 302 532 538 549 547 602 467 444 373 345 270 261 171 247 243 220 176 162 200 191 217 202 197 193 193 188 210 191 187 186 180 189 184 186 185 196 134 175 134 161 144 187 205 153 170 178 231 194 234 215 227 248 213
326 539 527 514 532 478 433 423 427 362 262 239 251 253 243 168 178 183 185 205 203 170 167 195 196 197 192 194 184 179 177 192 199 181 196 193 151 202 171 171 126 141 153 132 213 153 151 165 196 161 227 226 248 240
502 489 486 462 436 421 453 437 427 290 274 272 226 249 179 167 158 174 198 196 154 189 194 196 194 193 198 186 189 185 179 181 177 167 194 192 170 192 145 153 150 198 148 143 163 164 226 163 175 236 224 242 230 242
437 434 426 405 398 476 407 400 370 271 270 234 207 241 238 201 190 163 198 195 157 156 198 190 190 199 212 189 175 203 193 178 171 176 175 189 181 172 149 152 152 127 174 163 203 172 223 225 221 168 198 236 211 211
433 417 386 371 448 421 406 379 307 256 240 234 243 179 170 160 179 203 166 168 189 158 191 192 196 175 167 178 199 202 175 182 183 166 145 185 178 131 151 171 141 174 188 205 179 158 235 232 220 237 218 248 235 211
433 398 354 442 419 410 380 322 274 253 254 223 203 177 169 169 158 195 168 166 187 183 192 172 193 182 171 166 192 190 166 169 166 198 163 166 134 172 149 154 154 143 180 184 168 209 214 221 237 230 249 237 253 253
407 416 423 417 405 395 370 330 250 255 242 235 160 245 168 199 170 188 160 208 206 194 191 195 186 166 186 199 179 177 164 171 209 155 145 187 168 132 201 142 153 162 183 212 212 227 232 240 233 240 240 246 242 221
457 415 397 403 401 407 350 277 231 221 222 246 243 178 172 161 157 199 162 166 155 189 183 187 176 168 170 174 191 183 183 160 147 146 176 154 186 181 167 140 217 208 153 165 188 232 182 231 247 228 235 258 226 252
400 385 386 386 381 353 245 260 252 237 221 240 235 179 168 160 177 223 162 178 166 166 168 171 182 181 173 165 191 194 165 159 174 172 160 193 201 180 139 204 162 194 226 216 234 234 184 238 247 228 250 236 226 247
367 369 376 364 344 268 237 203 254 228 243 241 243 236 170 164 166 180 173 178 156 161 162 163 173 181 181 144 189 139 144 190 126 134 199 177 150 204 211 212 216 221 225 236 214 239 233 245 222 244 238 230 260 236
357 371 379 347 319 256 251 190 219 233 220 207 225 226 239 234 228 171 166 169 158 174 175 148 171 181 182 161 198 143 140 199 183 177 178 211 152 215 215 225 158 229 205 219 226 234 246 225 246 235 246 262 240 262
375 367 339 305 243 248 248 197 220 225 225 237 213 198 227 223 236 194 220 173 175 171 151 135 205 171 183 171 139 186 194 172 169 183 203 209 215 201 214 236 235 175 221 231 237 232 242 247 223 254 224 250 237 262
371 329 304 245 246 208 241 194 231 221 189 231 239 224 220 226 233 228 205 221 176 211 200 190 180 179 141 151 164 208 170 172 179 188 152 170 222 223 228 195 235 218 233 236 229 244 249 209 259 232 250 250 248 279
283 264 247 230 221 217 230 198 219 235 218 204 215 223 225 228 231 233 214 220 219 212 221 215 139 210 157 175 214 217 221 195 206 214 200 217 169 182 233 240 218 240 234 242 242 245 248 253 230 259 251 249 275 261
255 245 232 221 223 222 231 210 209 221 217 208 209 220 219 212 205 223 221 204 194 149 220 220 218 214 148 172 203 215 207 217 204 231 221 234 226 223 238 219 245 239 232 240 252 244 229 255 265 241 262 243 273 413
251 236 229 223 226 234 228 219 221 227 225 223 220 215 222 214 211 211 186 173 142 141 211 171 205 214 213 203 224 225 229 232 228 222 233 227 235 220 238 241 238 231 234 250 248 248 241 234 253 264 239 279 276 394
246 242 233 231 233 234 231 231 215 214 223 219 212 218 218 221 221 221 221 224 221 215 216 218 221 224 222 222 206 218 215 223 228 235 224 237 234 245 232 247 216 246 252 236 255 251 260 271 246 260 279 276 395 382
243 235 249 245 244 243 244 243 237 231 229 230 228 214 213 223 224 222 219 217 219 221 222 221 223 192 216 214 224 212 229 235 230 236 233 234 216 239 225 239 253 238 245 248 260 263 270 259 247 277 269 378 377 360
242 249 249 238 236 234 233 239 223 237 241 242 241 238 235 231 217 230 220 222 227 231 227 222 221 228 220 229 230 236 234 227 230 232 237 247 239 228 244 254 247 229 238 264 263 237 268 250 288 259 397 375 357 353

GFSWCAN_2pvu_pres_108.txt.gz
Presure
185 187 205 184 195 241 254 250 251 264 231 294 298 243 272 267 242 246 267 252 247 239 231 206 209 145 192 148 237 181 229 143 232 150 211 198 165 195 196 194 195 189 190 169 179 178 164 180 159 158 129 131 159 187
192 182 187 164 213 232 238 261 241 265 320 294 311 237 238 269 253 120 276 195 236 231 194 219 189 189 195 220 231 222 233 168 167 166 206 158 145 195 195 195 190 188 180 165 178 192 152 153 146 132 220 132 129 276
181 192 196 191 184 236 248 274 210 263 317 286 344 262 248 250 259 244 220 256 234 229 215 177 212 192 172 173 231 224 237 225 173 222 210 199 201 198 197 193 186 186 192 185 178 188 151 148 224 131 247 220 118 189
193 201 200 165 213 241 236 269 237 250 242 265 277 299 256 240 242 263 265 225 231 224 200 174 184 191 164 237 222 230 233 226 172 225 152 137 198 198 197 192 189 183 162 194 169 185 195 189 148 151 149 132 242 237
187 188 204 224 229 250 261 265 257 262 266 261 266 314 275 222 240 264 222 152 243 214 184 196 181 217 204 234 238 232 233 203 146 165 146 203 197 197 196 191 194 184 189 182 184 158 141 149 141 154 171 129 237 131
194 192 188 218 203 245 293 276 251 278 297 263 281 243 277 242 226 234 229 245 241 212 201 206 211 209 207 236 241 231 230 230 230 225 220 210 196 192 194 193 187 177 181 180 171 216 166 160 160 126 176 185 140 195
209 199 214 187 255 296 274 275 246 281 285 263 278 278 285 269 244 178 209 218 165 216 207 198 196 198 231 226 238 159 228 157 233 222 218 211 199 190 193 186 190 187 189 184 179 151 169 151 191 142 208 151 237 193
211 215 189 285 291 275 266 269 299 277 286 312 283 278 298 266 256 226 256 253 153 223 211 180 160 210 199 227 232 239 227 216 231 220 230 229 200 188 194 180 184 179 172 170 186 137 141 140 181 173 173 145 195 218
215 218 278 254 282 257 271 306 292 271 284 311 301 302 471 294 267 200 266 249 245 218 171 199 184 185 201 218 157 229 230 229 231 222 224 223 198 191 188 182 187 177 188 185 165 199 213 140 142 142 134 131 226 237
246 298 300 301 243 263 293 312 290 301 299 311 334 291 504 384 272 204 261 244 254 179 166 196 180 216 216 220 127 244 230 226 231 230 222 225 198 189 189 192 196 178 188 186 171 158 141 127 214 134 200 132 169 216
307 248 303 295 254 285 320 317 299 296 322 359 339 547 511 395 279 256 237 256 222 177 196 209 189 209 170 187 132 127 165 226 227 221 217 233 200 191 189 187 200 183 191 189 152 180 164 145 164 156 176 236 245 228
302 283 277 337 280 235 296 287 275 321 352 480 566 555 490 386 290 274 265 266 254 190 193 189 198 208 190 235 186 224 241 218 230 229 223 235 197 190 190 190 192 190 170 139 163 160 159 173 148 156 193 175 207 225
290 285 297 343 298 321 261 307 352 343 311 534 527 499 435 359 296 216 260 267 258 180 174 165 206 174 182 208 220 140 237 235 230 225 239 228 189 195 187 185 188 205 157 200 209 152 154 158 172 199 177 177 178 245
290 301 351 348 311 287 305 339 335 498 521 524 542 446 408 362 303 216 221 163 203 175 176 173 183 187 184 220 217 241 255 234 229 241 231 189 188 188 188 186 193 177 170 199 174 144 158 170 151 154 170 162 166 246
339 338 331 307 350 313 324 345 514 514 505 540 448 435 398 367 279 259 226 177 194 171 174 174 209 192 199 226 177 238 229 230 227 240 214 191 189 193 183 197 190 185 209 161 187 123 154 155 154 169 231 220 206 177
326 333 340 333 315 372 456 458 496 488 552 456 415 436 373 300 267 258 240 237 158 185 139 177 202 192 198 196 220 208 228 232 211 192 188 178 178 197 194 191 187 168 188 156 132 145 174 149 182 210 173 231 183 238
318 331 319 311 352 447 490 489 478 461 445 414 404 443 304 256 247 250 229 240 150 202 191 181 209 180 201 195 193 195 186 193 183 193 182 178 199 194 199 146 164 134 181 157 202 140 170 150 142 173 172 227 238 203
319 306 384 349 360 498 484 468 464 437 410 404 417 381 274 243 243 249 232 240 139 186 172 146 157 193 188 199 203 201 188 187 191 187 182 181 186 191 173 174 128 164 191 166 129 195 168 155 169 218 228 238 227 252
298 334 342 375 521 446 453 527 419 387 366 373 476 288 256 237 239 217 148 247 143 204 182 195 188 188 196 200 202 201 197 203 187 205 178 203 201 182 171 150 169 176 184 147 122 173 163 178 207 163 193 234 196 235
321 335 387 487 485 533 426 392 382 375 388 419 363 270 246 233 231 232 218 159 228 199 153 187 156 197 158 195 203 205 188 193 213 204 180 201 207 172 159 159 136 154 158 142 162 158 169 204 221 227 244 221 242 228
333 426 425 410 411 405 406 391 385 465 386 350 284 260 240 232 230 230 182 197 198 173 199 189 183 184 194 194 196 194 197 170 165 168 167 206 196 157 153 132 185 151 145 205 198 215 151 212 229 233 227 228 249 236
422 367 404 374 377 387 383 395 399 405 348 317 265 261 239 240 234 240 199 210 172 177 174 186 169 165 190 180 196 192 192 179 172 171 188 175 169 182 158 155 208 144 150 192 212 184 232 211 227 244 244 223 250 234
408 395 377 350 353 389 374 383 399 416 308 269 263 242 230 235 233 211 239 205 170 161 154 184 152 153 182 191 188 188 196 196 164 160 152 174 163 135 152 140 191 165 183 202 173 190 205 219 220 247 252 237 241 245
389 380 410 345 348 361 387 399 407 363 278 268 250 239 230 233 175 236 240 235 181 161 159 168 152 181 154 203 188 196 185 177 191 193 171 172 131 180 194 164 174 199 206 195 218 197 197 231 195 249 236 234 227 231
373 350 367 370 346 389 382 377 410 286 265 252 241 226 231 240 230 237 236 238 159 153 166 168 167 203 167 198 174 157 157 171 163 152 151 140 190 161 139 132 186 171 206 218 226 223 227 234 255 223 240 263 242 239
368 365 367 352 364 387 391 382 327 274 255 256 240 229 241 227 179 239 240 229 235 164 165 172 171 166 177 177 177 139 150 164 188 173 145 188 151 157 161 203 199 213 210 224 222 225 242 241 243 220 250 237 235 236
383 373 365 368 379 384 379 395 272 269 257 250 241 244 223 228 238 242 241 240 216 220 211 201 180 169 162 158 159 172 145 176 167 172 152 151 172 201 203 181 216 222 223 218 223 240 235 232 222 250 237 245 234 256
351 357 372 381 397 389 383 283 268 257 247 233 241 206 225 226 228 232 237 237 221 231 227 207 211 211 206 209 204 202 191 194 180 141 162 209 207 217 202 223 217 225 235 223 229 242 240 236 245 219 237 228 260 250
364 367 375 362 369 379 337 295 257 245 235 225 228 221 220 213 225 221 229 230 227 226 226 227 228 224 183 202 202 206 200 215 220 219 207 224 190 225 226 218 226 209 226 229 239 242 249 245 256 235 250 253 247 263
338 345 343 346 334 328 324 267 251 244 191 230 224 219 228 222 233 223 224 228 221 222 225 229 198 222 225 199 178 216 218 220 222 222 219 220 221 219 223 229 209 230 229 234 249 239 249 262 240 235 261 266 264 281
336 350 318 307 305 305 271 258 252 244 238 192 219 227 224 231 229 227 234 237 231 186 213 216 217 192 222 224 224 225 227 228 225 225 223 216 221 225 225 223 230 230 243 233 248 253 243 236 249 267 259 261 282 287
313 302 298 298 295 289 277 236 234 232 223 221 201 223 235 222 220 204 206 222 228 229 230 216 214 212 211 206 226 226 221 225 228 228 228 228 229 219 239 230 242 247 242 243 240 249 235 253 262 255 250 280 279 421
285 286 292 285 255 246 223 233 228 227 227 232 219 203 209 232 230 220 214 213 211 214 216 219 222 224 225 225 226 226 228 228 222 220 221 234 236 232 243 242 239 251 248 251 246 244 249 247 264 276 270 287 333 403

GFSWCAN_2pvu_pres_111.txt.gz
Presure
187 189 188 186 192 193 182 203 190 190 204 181 251 268 316 272 240 276 254 262 240 244 234 223 225 183 182 185 184 137 150 166 138 227 197 188 151 205 175 192 197 194 186 191 189 195 185 195 182 160 150 148 133 161
186 200 188 187 174 198 189 189 198 212 189 203 211 239 291 281 274 248 271 253 229 250 236 223 195 181 186 189 188 134 135 228 211 220 223 188 203 204 122 192 198 194 186 181 183 194 143 177 229 175 162 130 145 125
189 203 170 183 190 186 193 196 198 208 188 192 199 196 278 307 259 195 262 263 185 255 168 221 213 209 214 209 192 191 137 230 222 211 228 214 206 203 148 196 197 192 194 181 186 189 189 120 189 148 153 152 130 182
181 189 174 199 189 186 197 193 185 192 197 183 208 247 283 290 290 274 239 266 256 250 202 217 185 196 188 186 191 221 132 226 231 224 171 196 172 208 185 199 196 187 194 185 184 185 192 191 205 199 188 135 187 228
192 183 187 184 180 191 190 185 189 201 210 197 234 240 276 282 283 261 240 245 261 246 240 178 194 180 195 192 206 206 201 225 233 223 229 177 191 209 201 199 196 189 191 186 187 177 164 194 193 186 164 143 153 217
191 183 156 188 192 186 202 191 194 216 215 226 245 246 242 293 291 282 293 228 259 240 239 222 196 183 171 183 213 223 231 226 218 226 222 228 225 196 200 196 194 189 182 187 180 179 186 177 177 129 121 171 126 172
183 186 160 186 197 182 186 205 195 200 222 228 293 252 251 297 297 285 285 269 197 221 212 159 215 172 177 181 201 199 179 233 232 225 229 230 225 221 208 197 193 191 180 191 177 178 171 183 155 188 154 173 180 128
170 188 184 161 208 197 200 194 211 229 211 287 293 225 253 283 299 289 289 282 231 256 207 190 188 186 189 181 193 203 230 207 228 225 227 229 221 226 218 201 190 196 182 179 194 144 177 192 162 158 158 161 132 165
198 199 200 179 158 219 218 200 240 258 268 243 287 277 350 257 295 291 406 276 252 247 265 231 206 176 196 190 202 201 209 236 155 233 226 230 222 226 231 214 194 191 195 191 182 176 204 189 142 135 136 141 154 139
189 191 212 196 225 216 238 225 271 243 324 242 302 294 336 263 279 281 288 304 284 283 193 231 160 160 200 187 204 202 218 135 230 229 230 230 223 221 222 218 196 194 192 178 199 165 171 200 162 199 172 193 129 151
202 218 218 226 169 203 238 209 264 275 247 303 291 308 327 305 296 279 317 384 288 301 218 225 233 178 171 170 193 207 210 228 230 233 188 228 230 219 223 230 206 197 167 194 168 184 183 163 161 148 137 165 162 160
219 227 163 237 187 237 249 287 305 256 294 308 335 328 317 317 303 284 312 325 378 314 265 239 239 228 166 175 160 182 190 214 174 238 226 224 224 220 219 227 217 200 193 181 194 155 188 161 158 152 140 194 167 188
227 252 173 242 206 266 239 294 265 294 323 322 320 321 330 254 307 402 381 331 452 288 219 239 232 231 186 176 173 212 193 212 221 159 233 218 219 210 219 226 223 198 197 173 190 140 186 183 167 175 162 185 161 166
163 258 185 230 229 273 258 305 307 323 321 325 331 338 333 306 372 366 325 316 257 354 273 238 168 235 164 171 205 198 209 227 214 214 226 223 228 218 227 229 217 186 197 177 201 175 170 200 170 147 157 189 154 179
295 277 281 306 290 267 301 297 309 325 328 332 319 348 332 312 251 388 526 541 540 344 266 234 247 242 228 173 190 161 189 205 183 231 236 234 225 217 232 225 201 188 174 187 190 195 176 198 134 158 154 213 179 158
274 321 314 311 313 299 289 309 318 322 331 328 351 348 377 98 503 497 513 517 511 327 212 220 246 243 232 182 191 179 157 206 212 237 242 223 227 227 229 222 195 179 184 199 163 183 163 154 184 179 160 153 217 155
314 303 307 327 315 305 305 311 323 328 329 337 371 491 504 512 458 463 518 492 439 293 234 249 241 247 147 168 189 162 180 207 224 237 215 222 226 232 228 195 193 176 197 189 134 152 142 128 154 204 151 198 161 206
303 301 313 321 310 305 314 327 331 320 369 366 475 487 453 443 493 444 433 418 309 279 230 250 231 135 195 177 172 162 171 168 209 201 228 222 216 217 185 198 180 191 182 209 144 145 139 142 166 157 152 210 176 185
291 312 310 308 310 319 324 338 339 360 501 473 452 442 435 451 470 422 404 311 284 251 232 250 167 181 191 179 181 151 174 196 197 227 204 194 189 191 199 189 191 202 183 179 155 155 136 143 173 158 178 157 201 196
317 308 308 312 320 325 316 355 463 464 453 437 411 417 456 441 412 377 309 292 260 250 206 249 242 199 163 179 194 185 197 187 212 200 197 211 195 188 194 186 207 168 180 128 161 156 158 146 182 189 175 185 228 237
302 318 298 324 327 301 333 474 450 455 447 397 387 410 450 413 369 314 302 277 235 231 258 243 241 201 144 186 201 175 200 191 193 190 203 202 203 141 195 201 174 177 127 165 163 142 134 159 155 175 206 166 235 238
317 309 325 317 298 339 476 451 458 490 414 387 394 405 410 354 313 293 281 256 244 233 251 239 238 201 199 185 189 180 192 194 192 195 199 200 200 192 192 173 155 130 140 192 137 167 215 178 191 177 209 212 249 212
306 320 309 293 328 513 464 422 401 397 373 368 378 377 342 318 298 284 264 253 254 245 153 217 237 213 177 151 203 167 190 190 198 187 202 196 200 183 175 196 167 135 184 162 158 149 179 206 185 197 170 228 225 232
315 296 282 340 400 417 418 381 370 359 367 364 364 368 318 300 281 266 260 252 249 245 249 243 241 211 204 170 161 172 177 178 170 182 169 188 187 168 182 165 147 152 171 144 148 149 189 186 172 223 191 236 225 226
277 290 400 390 399 394 393 386 368 372 375 368 373 312 300 281 266 257 255 245 243 246 239 238 164 214 188 156 196 156 173 178 197 198 160 163 153 159 153 191 188 194 164 141 198 193 192 195 223 233 227 226 229 236
408 394 398 388 395 377 370 388 380 357 397 366 367 307 290 272 260 254 251 244 244 239 236 236 234 228 161 155 165 158 172 158 157 190 187 179 139 153 146 186 172 147 146 147 181 206 186 225 232 224 228 232 242 241
391 390 383 377 370 358 336 356 374 388 388 359 311 292 272 261 253 250 245 205 234 235 236 231 237 242 222 163 165 167 168 164 178 177 161 165 181 172 142 188 157 191 174 175 207 217 230 223 219 228 232 239 246 259
369 385 374 367 359 344 328 340 364 388 391 349 306 275 264 261 247 251 244 236 231 229 230 243 238 232 177 232 162 198 172 172 179 156 159 157 195 174 191 178 198 207 145 206 222 230 216 242 234 237 248 248 245 232
365 383 373 361 358 359 334 373 364 381 392 327 285 271 253 254 247 245 237 237 233 231 235 233 228 231 233 232 206 203 205 180 189 166 194 188 175 191 202 204 213 190 215 229 222 233 238 229 241 245 240 239 246 233
377 377 369 374 363 357 357 384 369 368 321 314 277 258 256 247 244 240 234 228 232 230 233 231 230 229 228 224 224 230 211 144 194 183 174 167 178 215 212 192 233 233 233 231 228 232 231 242 248 245 247 248 225 243
363 384 365 375 367 368 368 386 397 350 311 295 267 255 254 245 242 237 233 222 230 227 224 230 230 232 228 230 233 228 227 218 226 215 203 227 228 225 221 224 229 224 233 225 243 237 243 246 246 251 243 233 249 252
333 331 332 333 345 362 338 379 362 326 297 271 256 256 246 245 241 237 235 223 219 220 227 234 233 233 160 225 233 230 229 227 226 224 226 229 229 227 234 234 231 229 235 233 238 239 246 246 237 248 241 236 258 270
322 318 318 317 324 325 345 341 341 313 274 263 254 254 254 242 241 240 237 233 218 220 217 227 230 228 229 230 229 228 227 229 229 227 220 221 234 221 226 223 229 237 229 242 238 247 254 229 247 230 229 263 274 273

GFSWCAN_2pvu_pres_114.txt.gz
Presure
177 181 181 165 184 162 179 179 184 183 165 189 179 199 184 207 213 188 228 265 271 264 244 233 224 221 198 182 192 168 166 228 135 143 215 135 146 214 210 149 205 129 199 194 186 185 191 189 198 194 188 137 188 137
190 182 191 171 188 154 163 164 180 185 186 192 195 188 201 205 220 196 293 281 253 265 228 250 225 169 192 183 212 191 195 212 128 205 185 225 214 207 140 203 207 196 197 193 194 189 188 197 196 188 156 182 143 147
179 167 198 176 165 185 158 177 184 187 174 197 197 205 194 193 219 220 253 231 270 279 256 242 236 172 180 186 208 119 187 217 214 220 221 221 225 215 177 206 206 201 196 194 189 189 187 175 197 189 176 152 150 152
179 170 189 193 195 174 186 168 195 192 192 189 203 188 200 203 191 224 199 220 282 246 273 235 250 217 171 177 182 187 189 188 214 218 222 221 184 219 199 188 207 200 197 196 190 191 189 190 180 184 198 156 181 183
179 196 194 187 184 204 189 156 192 199 180 200 199 203 210 177 208 228 308 230 243 279 276 259 237 159 174 205 184 183 182 195 227 214 218 163 220 145 227 219 209 200 198 192 192 187 194 184 176 191 158 175 201 158
191 190 189 192 191 195 186 191 164 193 199 200 213 180 217 190 193 225 321 232 273 298 264 272 255 248 169 172 181 190 185 192 214 202 224 218 225 223 226 225 218 207 199 197 195 190 187 205 173 198 183 149 142 139
193 189 186 176 171 185 177 190 193 194 193 197 204 191 215 181 219 272 293 237 254 305 320 255 275 249 248 161 177 180 193 201 212 224 227 222 223 224 224 225 225 221 208 201 195 190 190 186 153 160 174 142 195 205
192 177 189 195 187 189 189 195 183 195 183 213 206 200 219 203 202 267 286 243 329 313 304 324 256 260 248 188 195 191 197 162 209 199 219 197 225 223 222 228 227 224 223 215 200 192 198 168 149 194 206 168 165 199
153 182 201 190 188 194 198 203 202 199 180 190 216 193 175 257 237 304 313 293 290 334 325 334 289 256 264 211 199 161 177 174 190 199 216 228 223 227 211 208 224 222 223 227 226 196 146 202 184 179 194 171 160 155
179 185 196 188 202 194 206 207 185 217 199 226 163 220 235 233 290 236 313 330 325 357 303 304 339 291 258 132 221 204 185 187 170 193 203 221 229 231 216 226 223 213 218 222 221 211 194 191 205 173 198 193 180 175
177 189 197 202 196 169 216 197 213 225 211 220 196 219 248 231 269 276 312 325 361 348 309 268 286 301 258 259 228 160 171 173 177 192 193 191 166 226 225 222 224 221 218 219 224 225 198 200 181 187 155 158 148 159
207 222 207 198 189 213 212 176 165 201 243 231 214 246 274 268 318 209 311 321 359 332 308 298 284 369 280 258 257 178 187 167 160 188 174 195 234 181 229 222 225 226 215 219 221 222 219 196 193 177 187 204 148 137
274 254 244 228 232 225 231 213 250 245 231 251 251 337 329 301 202 88 97 318 331 321 308 292 279 271 303 275 259 234 228 224 167 163 186 149 145 212 227 227 220 224 222 219 211 224 199 194 200 193 162 174 140 192
214 264 184 255 221 218 212 257 263 256 266 247 293 331 333 324 309 298 289 321 329 305 318 294 278 282 329 283 263 258 178 222 185 181 172 194 202 210 221 230 230 224 224 212 218 224 218 180 143 204 175 205 128 143
311 258 300 235 271 250 248 243 266 229 254 219 327 287 326 305 307 298 288 306 285 332 328 288 281 285 332 301 280 249 244 229 187 176 176 154 189 162 222 220 221 231 223 215 225 223 209 199 131 177 138 160 139 140
238 325 225 188 293 297 252 232 251 277 348 311 310 321 299 313 312 312 307 324 335 328 222 285 289 342 321 329 297 272 209 234 191 181 185 168 189 211 222 216 230 236 224 229 231 223 207 190 140 163 150 124 206 147
288 297 182 227 238 309 316 305 297 296 310 316 311 304 307 316 305 118 301 317 341 336 327 289 334 347 323 350 320 276 245 225 201 187 187 190 218 188 219 225 236 226 222 222 225 219 174 193 124 189 153 133 140 149
286 251 275 288 282 282 287 291 298 324 313 311 303 314 327 321 324 331 347 338 330 338 449 198 337 326 330 362 314 257 233 225 170 198 186 211 217 178 214 232 229 222 220 227 223 198 198 184 154 196 133 155 174 150
276 280 292 274 279 289 291 283 314 303 312 302 303 315 318 324 337 341 327 354 465 464 453 473 264 332 284 411 286 251 238 232 224 158 156 164 174 189 218 230 222 226 217 205 198 190 203 188 163 161 167 146 169 170
297 287 254 286 275 282 309 316 306 302 312 323 317 319 335 339 318 353 453 452 437 420 418 479 459 299 194 363 270 250 242 236 222 152 199 201 177 182 194 214 223 217 208 202 201 201 204 155 197 141 134 185 179 200
312 308 300 305 302 306 292 299 314 302 303 313 326 339 317 323 457 446 440 408 407 413 430 454 432 439 302 135 236 154 238 238 224 212 199 191 188 206 199 208 229 201 161 216 198 186 129 178 196 141 160 186 191 144
283 289 282 290 297 290 288 293 292 317 333 331 314 306 381 449 449 435 392 393 391 413 423 439 418 191 343 275 252 159 237 176 225 214 199 177 171 178 191 200 216 192 198 196 207 208 130 194 177 145 141 176 197 179
285 283 288 290 288 291 298 299 318 324 322 298 303 433 425 412 441 391 377 404 404 383 375 350 327 313 294 254 249 249 186 236 162 192 208 198 182 183 193 200 199 199 202 206 158 167 127 197 175 150 177 195 150 200
288 291 291 294 297 308 311 322 319 317 282 346 412 393 397 414 411 374 387 365 345 337 322 308 293 254 195 246 245 242 238 232 224 180 193 194 188 172 190 200 201 167 199 161 154 138 182 185 186 155 179 153 193 209
286 289 303 311 318 330 326 323 317 275 431 410 390 379 378 410 364 358 369 342 318 312 297 283 275 264 253 163 246 236 238 233 221 213 198 205 203 199 174 162 160 189 159 193 142 143 179 148 144 171 174 201 207 209
305 318 341 340 311 307 312 271 285 423 399 381 364 368 390 379 350 353 335 312 300 287 275 268 264 257 249 248 246 236 232 202 217 168 169 180 162 201 163 179 193 166 154 151 190 167 151 199 187 200 183 207 209 238
333 341 302 304 310 307 269 404 417 405 380 362 363 367 375 384 355 337 307 297 285 275 272 260 258 247 252 234 242 238 228 236 229 158 209 194 161 167 156 161 167 167 179 170 165 173 204 208 201 178 204 210 222 233
309 350 346 338 403 393 388 381 359 371 371 342 385 361 374 347 331 308 289 284 275 267 264 251 249 254 253 248 228 219 227 228 176 165 162 167 202 176 172 184 153 145 181 173 195 174 202 199 209 200 211 205 230 230
336 408 410 423 381 374 368 360 350 344 365 344 375 375 340 328 303 293 282 271 266 260 254 247 246 237 237 239 225 229 227 226 227 174 167 158 169 202 205 192 198 202 199 141 168 189 198 206 203 210 243 227 227 242
395 396 392 386 375 370 354 338 333 334 342 338 348 365 329 309 289 278 271 264 261 257 251 248 248 241 238 247 235 231 225 228 228 229 220 213 214 216 196 206 191 165 153 213 203 205 206 211 208 238 226 227 243 241
391 393 380 373 362 356 345 335 332 331 357 342 360 340 314 297 279 268 262 259 256 250 250 250 247 245 237 212 239 229 227 226 227 228 225 225 224 226 229 222 192 219 221 200 206 209 240 236 244 228 235 245 240 247
382 375 362 364 360 365 343 344 342 353 359 356 331 325 297 284 269 265 260 252 252 249 251 246 238 242 235 228 227 242 227 228 233 234 229 225 222 216 236 228 222 216 227 241 237 242 234 247 235 237 243 244 242 245
396 378 366 361 367 367 362 323 337 349 339 348 332 311 289 280 265 260 259 256 251 255 246 247 248 237 236 234 226 233 229 234 242 238 195 232 232 232 229 233 236 240 239 238 236 241 243 236 243 237 242 245 234 234

GFSWCAN_2pvu_pres_117.txt.gz
Presure
184 179 176 179 184 165 173 172 191 193 162 199 179 190 214 194 189 181 199 188 202 188 280 222 252 246 237 185 187 176 190 217 225 193 223 143 137 168 166 214 213 196 205 199 203 196 201 193 198 191 211 186 161 179
185 183 165 177 188 184 182 192 177 188 188 162 200 194 187 194 205 203 176 209 186 202 222 276 261 251 245 231 208 179 198 201 130 139 219 217 143 136 177 212 209 149 181 203 197 199 193 199 192 175 198 206 170 164
185 178 187 179 172 185 179 179 183 161 189 188 155 198 185 190 192 204 213 201 194 203 205 276 227 266 243 246 201 189 208 192 193 204 217 219 217 162 221 224 214 209 132 209 200 199 198 195 199 190 192 190 163 176
183 179 182 175 182 183 176 185 195 192 149 195 182 175 185 201 202 187 193 227 221 202 206 284 243 250 258 250 232 224 178 179 190 192 204 219 136 225 222 217 224 126 179 210 210 200 196 194 189 191 181 195 187 160
171 180 183 188 168 189 187 184 192 185 151 169 189 171 190 187 198 206 204 212 181 209 212 248 290 238 244 254 252 220 222 196 177 189 192 204 222 226 221 227 219 134 210 222 217 210 204 199 193 190 189 195 200 189
190 175 170 181 169 181 180 184 188 190 201 205 180 201 161 198 206 205 211 196 229 188 211 224 311 314 256 268 249 252 225 211 183 177 189 195 139 204 226 223 227 223 220 220 224 224 220 208 198 198 189 164 198 187
179 181 175 172 176 182 180 183 187 176 195 200 212 204 204 192 205 202 211 180 224 230 188 212 322 305 316 252 264 248 241 225 209 177 181 195 197 218 216 229 222 228 220 224 224 224 228 226 223 200 198 185 198 196
188 194 179 168 181 176 186 182 187 192 194 195 207 205 200 200 185 172 235 222 199 223 251 273 305 241 322 325 276 264 246 237 222 209 177 175 198 202 211 238 223 228 221 220 223 221 219 223 232 140 196 191 179 177
179 183 191 178 175 178 149 184 186 192 187 201 201 204 208 211 208 207 238 217 249 225 200 268 210 290 300 320 313 275 268 249 235 219 202 151 185 174 202 224 227 227 225 213 227 226 218 217 225 224 222 203 183 196
192 191 195 192 188 189 184 191 184 192 192 202 213 201 181 201 197 241 256 226 270 256 179 320 295 297 289 321 312 303 278 265 256 229 215 176 168 174 182 199 223 229 222 223 223 227 219 221 219 144 229 223 214 181
201 201 195 193 181 199 193 186 189 182 193 202 200 204 183 214 210 235 212 276 249 262 232 236 284 284 292 310 323 308 380 223 258 191 229 217 177 172 179 179 222 228 228 227 222 224 223 230 214 221 222 224 219 191
229 223 222 220 190 203 199 209 206 204 209 206 205 210 214 218 165 276 195 274 254 268 249 248 285 292 291 300 328 318 290 345 271 259 222 222 207 165 168 162 190 198 217 221 228 222 230 232 217 223 215 224 202 170
243 242 260 241 235 218 225 215 208 211 230 216 220 228 162 295 298 204 89 95 262 289 266 303 295 295 308 307 331 332 289 309 315 272 230 158 217 210 170 167 193 199 180 225 230 224 224 226 225 214 216 224 214 211
237 295 289 335 243 234 219 243 313 242 298 290 277 267 259 234 255 276 307 260 287 251 337 319 310 299 295 286 314 327 323 304 331 280 253 225 221 216 194 168 199 132 174 217 222 227 227 224 226 223 219 225 208 211
268 240 240 235 232 238 223 218 213 161 248 179 228 241 271 295 333 313 289 280 278 302 328 303 309 304 301 311 309 332 300 263 318 302 246 229 226 222 223 165 179 202 200 209 225 226 223 232 230 222 226 226 221 213
293 371 265 263 261 261 260 232 228 232 288 258 294 346 331 327 303 245 288 162 294 280 296 303 314 304 304 309 310 323 343 367 295 308 246 235 225 226 225 216 179 168 138 184 209 221 222 233 234 226 222 225 186 160
277 257 344 294 306 281 261 277 282 289 341 367 312 307 305 309 246 285 283 290 107 287 307 314 305 295 313 321 319 324 340 337 285 316 253 241 234 216 186 222 207 190 189 204 192 225 222 231 231 221 229 220 155 186
311 333 302 291 308 314 302 188 289 308 300 290 252 291 285 255 278 278 284 278 283 318 246 314 308 308 320 334 332 335 173 330 300 347 260 244 242 233 221 147 216 183 170 207 208 224 225 235 226 223 187 215 172 220
328 324 320 309 277 278 300 278 297 242 280 275 276 267 279 285 281 280 290 287 204 310 224 196 309 332 264 334 339 334 343 359 301 385 263 245 246 233 195 178 225 162 172 202 216 208 233 232 223 225 181 162 199 183
306 310 290 268 287 290 276 300 295 280 268 265 277 295 293 281 278 290 282 293 310 313 322 330 337 341 341 329 325 336 340 348 300 386 262 246 140 178 160 154 178 166 192 185 231 196 230 225 226 133 217 131 132 217
302 278 287 306 305 282 279 297 318 276 265 268 274 273 276 283 293 294 317 313 314 329 338 345 319 318 339 359 319 337 273 327 154 377 262 221 247 167 187 179 234 226 195 192 200 202 190 214 224 209 187 161 168 185
308 300 298 289 281 277 283 269 269 271 291 286 281 278 283 283 302 307 290 314 331 345 307 317 376 498 463 465 455 456 463 362 340 364 268 259 178 238 172 230 238 235 190 180 193 201 210 198 203 196 161 146 186 186
298 281 273 279 281 286 274 280 280 282 280 278 282 289 301 310 296 296 319 335 329 307 484 465 469 445 451 438 252 440 335 346 337 318 266 259 152 178 237 224 238 195 222 177 181 199 190 189 191 169 182 153 153 159
286 289 291 299 298 306 321 306 297 294 295 305 307 293 292 294 310 327 357 299 408 461 470 425 408 419 408 411 416 304 329 294 334 301 268 172 246 226 206 211 170 239 226 216 197 196 166 168 159 151 174 164 155 188
305 304 302 310 310 284 291 296 300 296 288 285 284 292 298 310 335 348 289 473 444 411 395 384 388 380 373 375 393 417 298 282 312 287 168 260 248 226 165 153 226 237 223 217 211 166 159 146 159 156 151 158 157 200
304 285 305 309 305 297 286 281 276 272 278 282 288 308 339 345 317 305 447 406 397 382 377 369 364 365 365 393 393 292 267 268 280 281 262 234 244 236 215 233 210 233 208 220 194 159 169 193 162 175 196 161 164 207
305 296 286 291 281 272 270 276 282 288 295 304 316 333 319 277 353 448 393 389 358 344 337 335 341 352 359 334 313 292 264 250 286 273 260 256 246 237 206 230 231 225 171 178 175 151 174 158 168 152 159 202 191 200
288 278 273 273 274 276 280 282 292 306 317 321 311 321 271 420 411 387 363 340 330 329 324 321 318 313 307 295 284 273 270 262 276 267 259 249 238 172 236 224 161 229 224 160 146 198 210 204 202 201 196 154 205 236
277 278 279 280 284 292 301 308 313 314 310 305 339 304 406 397 388 372 337 324 315 311 298 292 293 291 284 274 269 265 272 272 267 258 249 242 238 237 235 217 227 168 152 157 217 174 217 217 215 214 214 218 217 214
287 290 293 294 301 314 312 296 306 343 342 320 396 397 350 389 364 360 313 298 299 297 285 284 283 276 268 268 262 264 267 263 253 255 237 244 241 224 233 238 234 187 228 227 216 214 196 216 215 211 215 214 220 227
319 320 324 326 316 317 335 340 360 400 389 369 350 373 363 355 334 342 313 296 292 292 285 276 272 265 263 261 262 263 260 258 253 245 232 239 238 229 231 233 229 230 228 228 227 166 226 223 227 225 231 219 228 251
346 333 336 337 331 333 394 390 373 375 358 346 338 358 369 328 314 320 297 287 288 282 272 265 265 259 263 259 262 263 257 252 249 230 232 230 231 227 229 229 232 229 228 231 229 232 234 232 225 226 239 231 251 240
393 396 404 394 386 388 373 369 369 358 344 336 334 344 360 324 310 304 295 285 279 272 267 262 260 259 259 261 259 252 253 257 254 238 238 237 233 221 220 226 227 221 226 226 244 231 233 230 245 241 238 243 222 206

GFSWCAN_2pvu_pres_120.txt.gz
Presure
189 164 176 189 173 175 187 180 191 175 193 182 189 154 198 190 200 183 204 191 188 169 204 205 187 210 214 204 282 262 187 201 143 208 206 221 224 206 170 161 191 140 213 209 205 204 201 200 197 192 191 198 211 186
171 160 172 174 187 182 158 188 188 186 194 174 167 191 208 198 183 201 204 174 209 173 186 208 217 206 197 224 289 205 258 204 227 177 211 134 206 223 183 132 135 172 213 215 144 212 175 203 200 187 199 194 190 200
176 177 191 169 172 193 170 147 183 185 183 191 198 199 194 159 192 210 182 205 194 176 186 193 212 206 208 223 272 285 273 175 227 185 189 132 203 215 215 222 221 220 217 223 224 200 219 204 202 200 194 192 186 204
191 184 190 176 156 182 194 182 179 160 150 182 173 146 178 193 170 210 173 205 181 205 192 211 188 184 206 223 261 277 284 269 251 237 199 125 132 199 214 215 184 222 226 220 183 134 133 226 223 212 203 198 195 187
182 188 175 202 171 186 153 172 179 189 190 177 191 191 196 202 194 195 184 190 196 209 206 205 188 180 200 214 266 269 264 280 269 178 229 230 213 132 191 203 133 225 222 222 228 195 227 224 226 227 231 230 215 186
191 198 183 217 182 193 183 195 180 185 193 191 194 173 183 189 188 200 201 213 201 205 191 206 185 209 220 194 266 266 263 300 281 266 205 239 173 139 166 173 210 201 213 223 220 227 227 226 227 228 223 226 232 230
192 191 189 180 188 192 181 183 175 178 173 188 190 157 184 195 191 195 197 210 188 201 205 199 195 199 210 195 223 272 258 311 308 281 266 251 239 160 179 170 180 155 214 224 224 223 229 223 227 225 224 224 231 138
200 186 202 210 182 194 196 183 187 183 177 170 193 190 169 196 193 170 207 214 179 211 195 174 173 180 205 217 272 265 235 321 304 309 281 265 214 241 204 211 205 176 210 223 228 226 228 228 220 230 228 222 222 232
193 193 204 190 192 193 184 175 165 172 168 190 183 204 198 192 181 202 195 192 207 228 191 211 218 208 183 252 268 267 275 257 326 300 312 283 269 249 211 181 110 169 175 192 215 229 228 225 227 224 234 224 224 228
186 197 197 196 195 172 191 203 197 188 182 191 170 181 201 200 196 218 227 229 236 234 182 225 228 228 185 239 236 269 327 269 255 313 331 325 284 240 232 182 163 172 206 149 196 208 228 231 234 225 228 227 224 223
212 221 174 204 196 207 203 201 189 197 197 209 211 202 195 199 184 180 234 236 227 231 219 217 251 189 258 200 264 285 326 301 267 319 317 338 319 255 164 238 232 164 176 180 199 202 225 233 235 231 227 227 238 232
266 215 255 256 220 215 218 219 230 235 202 210 207 216 237 239 222 229 197 169 212 231 208 255 251 246 202 240 276 305 313 282 343 326 319 326 336 263 226 239 241 145 221 193 169 165 178 214 224 222 236 229 232 230
292 264 227 252 250 240 239 246 245 230 244 250 237 230 281 269 221 305 243 241 269 232 235 227 250 217 183 254 320 319 294 289 353 341 316 331 309 292 249 243 240 233 232 151 169 171 184 194 193 217 231 237 219 228
370 268 263 261 277 250 268 217 214 218 213 219 212 219 307 215 256 255 321 213 239 210 206 302 227 289 248 298 318 312 294 310 309 345 287 283 335 296 267 248 246 240 228 227 163 169 208 142 197 170 220 220 235 233
528 356 339 323 273 297 282 267 266 242 208 280 263 245 282 234 272 224 223 224 203 207 218 233 299 298 299 319 312 271 305 298 307 313 316 277 324 273 291 259 253 247 241 230 230 169 217 210 190 204 195 209 233 225
513 494 333 313 309 299 289 266 237 239 275 262 257 263 246 251 267 232 259 240 248 228 234 275 268 314 267 309 240 293 215 288 314 312 300 311 319 291 303 271 262 256 158 240 225 161 161 218 211 174 207 206 210 222
450 481 414 384 303 364 291 341 296 263 269 293 277 306 284 245 244 275 280 270 264 280 272 283 321 315 321 239 285 296 277 276 302 305 304 313 310 324 280 293 268 260 255 242 238 230 230 227 214 209 201 193 200 225
413 455 432 311 317 310 328 329 328 278 273 283 297 273 287 268 281 280 278 272 277 273 258 310 308 319 252 290 283 292 278 193 141 269 286 304 155 324 286 299 276 261 259 145 241 144 230 229 223 213 183 201 209 207
392 383 367 336 306 298 286 286 279 273 277 282 279 297 309 297 283 273 262 276 281 273 304 314 313 104 282 159 207 274 288 118 129 307 137 213 317 225 307 288 292 267 261 254 246 238 203 226 226 220 210 198 194 221
324 301 325 319 285 321 321 293 288 329 365 313 307 289 278 268 262 265 291 274 269 301 310 292 278 291 289 290 280 282 305 303 299 317 321 316 316 327 330 279 304 274 207 257 249 244 240 224 195 224 219 181 191 213
266 326 316 329 339 328 319 323 317 305 296 290 278 269 282 281 285 279 269 272 288 287 274 275 141 279 289 186 121 136 308 313 320 325 349 346 343 348 340 285 306 249 264 261 255 246 169 179 227 229 218 213 205 200
291 279 339 318 306 297 303 300 289 286 299 269 284 277 274 268 273 284 274 279 280 270 267 271 282 288 291 301 313 314 266 122 319 281 323 325 334 339 344 291 308 256 231 172 161 170 236 245 178 231 219 219 214 185
310 320 307 301 303 311 319 303 294 302 312 292 287 278 277 275 266 267 281 295 289 276 279 285 290 296 310 316 315 328 348 343 336 250 515 346 420 330 345 289 314 293 191 263 258 176 244 244 169 232 223 223 216 205
320 325 323 318 314 300 301 297 318 313 298 282 275 267 287 283 284 274 288 280 269 277 286 290 305 306 306 320 347 339 330 474 448 465 453 458 333 339 305 280 331 287 273 168 255 251 238 241 243 226 231 224 171 199
325 315 315 325 303 305 306 309 307 291 282 287 282 277 276 276 276 280 283 282 291 293 305 298 299 324 345 316 462 454 438 443 441 431 417 432 346 327 287 277 329 282 266 258 154 247 243 238 242 216 232 224 167 197
315 314 320 310 296 319 293 290 312 306 295 273 269 278 282 284 287 289 286 300 309 281 293 310 336 311 369 423 396 389 376 337 401 415 435 431 412 297 286 315 309 282 211 211 244 246 180 239 231 212 223 167 158 186
329 326 310 307 303 290 303 291 278 272 272 270 275 286 293 295 296 307 290 281 293 309 324 312 288 419 392 380 368 371 292 375 390 410 376 373 312 299 318 327 294 247 244 251 198 239 235 236 232 236 157 204 168 233
364 334 324 314 301 306 304 279 283 290 294 290 294 312 316 292 279 282 285 295 310 340 298 406 385 367 350 344 349 359 389 392 392 379 304 298 299 307 310 309 278 267 256 251 244 246 236 229 172 181 221 166 229 232
344 352 356 322 302 309 294 286 292 291 291 290 283 280 282 283 284 289 303 322 286 279 407 360 341 333 327 339 353 388 347 334 319 286 280 284 285 285 287 281 275 264 254 252 185 239 241 240 178 200 154 169 186 225
294 292 293 293 293 301 311 299 280 278 272 276 281 283 286 291 297 303 333 283 277 395 348 332 321 320 329 337 314 306 300 288 271 280 275 270 275 275 279 281 272 263 218 243 244 242 242 237 169 158 219 221 220 211
282 287 288 286 282 282 284 282 282 282 285 286 291 294 298 303 285 336 305 328 396 340 327 313 317 323 311 297 288 282 280 280 265 267 263 260 267 262 274 276 263 257 258 247 244 243 244 203 235 236 231 235 238 236
284 286 285 282 279 288 287 286 288 286 289 292 301 322 336 319 350 308 403 395 335 323 313 310 300 296 285 278 274 272 271 272 265 267 262 261 252 258 270 248 256 254 250 248 246 243 244 240 226 226 228 225 234 226
288 287 287 286 287 291 294 302 312 322 326 319 311 339 329 327 381 372 403 336 316 308 299 290 270 286 275 267 265 266 264 266 269 259 262 260 255 262 261 245 256 253 249 247 237 238 241 241 234 225 215 228 233 240

GFSWCAN_2pvu_pres_123.txt.gz
Presure
175 159 175 158 176 172 150 175 142 170 179 139 182 179 184 192 200 183 192 205 171 199 178 178 206 218 200 210 206 210 190 209 210 282 271 174 231 220 136 225 230 149 131 189 141 187 215 202 145 180 214 201 193 203
161 151 157 188 157 157 179 182 185 170 170 180 151 201 186 176 193 198 166 194 168 175 192 181 189 198 220 191 215 199 205 214 215 219 274 255 251 223 139 184 127 167 184 139 214 217 225 233 233 167 211 204 197 197
167 188 197 190 184 167 154 195 156 181 194 178 155 188 180 209 200 190 172 189 178 166 183 201 217 178 195 223 211 206 224 203 232 170 278 269 266 252 238 155 197 161 149 168 146 229 229 223 224 231 134 156 234 203
199 171 201 179 192 172 199 154 195 172 182 167 183 168 190 201 178 205 172 193 196 201 172 206 176 209 186 196 200 191 223 218 227 225 299 270 274 256 213 244 135 136 192 212 173 228 233 230 233 231 171 230 231 233
191 191 196 187 186 171 206 154 188 189 203 189 194 173 190 184 158 191 199 160 193 205 197 176 181 201 181 193 190 197 238 212 227 244 282 305 279 275 264 249 132 163 213 188 139 214 216 232 233 230 236 232 236 233
188 197 201 148 198 194 182 195 183 198 186 203 183 190 147 185 172 201 194 202 186 187 201 179 199 181 211 201 215 182 228 190 280 243 296 258 323 305 282 250 236 241 235 186 180 152 199 217 225 236 233 237 233 233
196 197 186 189 186 195 200 195 191 190 190 189 195 191 184 183 148 198 173 201 175 205 203 175 204 177 200 226 192 227 254 257 250 217 278 267 243 324 309 267 228 235 248 233 217 183 133 196 215 227 237 236 237 228
207 197 179 191 193 193 192 196 184 188 190 189 187 201 183 194 191 175 184 175 183 196 203 194 203 203 228 200 208 184 235 274 206 285 246 281 271 262 310 251 249 168 246 238 230 184 215 169 205 218 224 236 235 236
205 209 192 193 195 175 207 208 200 196 191 181 185 182 207 170 195 180 200 181 178 182 197 200 214 221 215 222 222 261 235 257 246 279 217 289 275 230 286 286 268 214 253 163 249 228 226 185 184 194 202 212 236 241
228 220 204 215 218 220 216 210 185 193 193 195 204 204 212 214 173 176 211 175 203 166 212 197 209 208 209 199 207 264 284 239 270 188 271 296 326 237 250 272 285 280 212 256 242 222 156 168 215 213 205 200 217 182
215 231 234 250 238 237 215 207 187 215 191 216 191 208 202 177 201 225 222 173 232 241 191 204 228 223 223 236 236 227 276 286 205 224 234 321 289 249 303 295 277 291 303 279 258 248 170 232 212 209 203 208 197 174
249 245 223 230 238 203 219 220 220 218 242 207 213 177 220 223 180 242 232 255 252 227 225 231 185 249 240 214 227 273 250 207 245 258 213 328 274 275 270 321 306 283 301 319 286 259 245 165 242 225 176 211 188 124
296 304 267 234 258 246 233 222 175 186 259 258 218 257 229 219 189 227 227 215 129 216 128 230 237 250 205 236 263 229 242 247 225 231 231 335 281 274 280 294 319 300 323 333 325 263 258 243 236 214 169 179 191 207
399 445 491 489 371 313 320 263 215 237 264 226 268 274 225 241 234 236 227 245 222 203 217 229 205 211 239 222 223 223 225 204 200 216 295 306 294 252 283 289 300 309 297 321 318 299 273 257 132 148 161 160 221 218
431 422 417 398 498 367 337 315 295 287 266 241 252 251 262 258 258 270 189 226 229 174 216 225 179 236 279 261 251 279 182 253 225 223 299 303 280 254 284 280 299 316 286 313 313 303 255 267 256 247 244 153 226 206
447 409 393 479 303 477 370 336 306 293 283 279 253 281 265 278 213 225 266 127 263 206 217 248 261 261 223 228 264 246 267 266 274 266 280 305 292 279 290 282 305 319 311 291 308 305 289 269 260 253 246 244 236 208
465 517 508 535 452 365 462 400 359 309 308 288 289 146 253 258 267 249 262 280 262 269 254 231 267 257 250 256 251 258 240 251 276 241 277 313 293 265 275 292 274 310 301 280 299 302 301 282 266 154 252 246 158 237
535 544 472 353 485 512 443 365 376 361 316 303 298 290 285 284 270 268 255 275 256 235 231 230 274 253 252 265 239 255 255 272 286 267 278 305 280 139 281 294 290 321 322 304 282 307 297 301 283 266 258 251 244 241
463 449 433 376 398 374 337 352 405 362 355 352 323 364 286 277 292 263 267 253 269 304 234 273 260 271 265 249 258 180 280 253 261 257 254 300 286 303 291 281 287 301 314 309 306 316 304 291 306 277 262 257 250 243
400 397 382 397 370 346 347 353 381 393 370 330 329 315 320 307 290 286 280 267 274 302 288 271 143 249 253 261 267 278 271 154 265 278 251 121 293 149 115 243 291 269 291 198 314 316 326 305 295 292 219 259 254 248
385 376 398 377 361 383 371 360 341 350 359 345 309 307 350 310 341 266 320 290 288 283 127 258 285 243 266 286 301 264 280 290 280 275 101 294 293 285 202 290 297 304 304 275 314 327 324 330 297 309 157 252 256 252
344 334 344 347 343 343 325 329 313 312 316 302 322 332 342 332 314 280 291 295 258 139 264 253 258 281 290 270 271 280 296 288 292 284 215 96 285 304 302 318 327 320 325 327 319 335 346 343 318 300 290 268 258 204
319 309 344 339 331 320 309 328 325 328 319 317 310 307 297 293 310 260 256 298 285 266 263 280 291 279 267 278 290 282 288 285 284 308 213 294 122 313 327 334 248 366 339 322 325 339 348 234 167 293 297 273 205 229
301 303 315 325 319 320 326 320 310 304 305 301 304 296 280 295 285 303 312 292 291 292 292 293 268 268 283 278 279 283 267 303 284 300 302 187 271 354 355 354 490 435 317 316 329 335 345 333 312 313 297 192 165 238
311 324 318 319 305 310 309 304 300 307 313 313 317 347 317 306 291 289 278 275 281 279 280 274 274 271 280 283 285 297 293 301 303 335 346 331 475 474 471 479 467 462 417 324 318 335 333 317 300 299 285 262 166 243
311 302 327 319 311 310 307 307 309 310 323 310 299 299 287 281 290 288 275 279 288 293 288 276 283 279 287 295 301 298 294 313 341 320 398 449 459 452 435 433 459 421 339 314 332 331 318 306 289 281 267 261 192 247
321 321 336 317 312 303 307 296 306 325 297 293 286 300 294 283 291 273 290 299 299 284 300 305 297 291 290 297 301 296 330 316 302 414 397 410 431 427 416 417 401 331 316 335 331 314 301 278 281 223 234 206 253 248
324 313 336 323 296 293 296 312 306 293 289 305 293 299 282 286 295 301 308 297 291 279 276 280 288 299 298 274 310 327 294 379 380 384 389 388 410 394 382 317 307 327 330 315 293 270 283 285 274 211 258 255 253 247
331 319 333 313 301 304 323 313 298 307 305 293 285 295 275 278 300 299 293 269 266 278 291 293 281 287 304 328 306 394 373 364 368 374 381 410 453 333 308 305 302 293 285 277 281 290 284 274 266 264 258 251 249 246
334 336 335 334 323 315 311 288 294 305 309 303 280 299 308 302 295 289 291 285 287 291 290 283 294 304 315 290 382 358 363 371 378 376 395 295 301 280 309 302 288 289 286 286 286 286 277 268 260 256 253 248 247 247
351 346 308 306 314 316 310 302 308 317 302 320 291 291 307 294 285 290 294 293 277 289 292 309 312 298 351 348 359 359 353 348 337 292 285 277 301 304 289 293 290 286 280 279 280 275 268 262 256 253 248 241 246 247
326 326 331 333 338 343 347 329 316 318 315 303 306 314 308 300 282 279 283 283 294 291 312 299 293 278 349 355 330 305 312 312 295 298 292 275 286 283 272 273 275 279 275 267 264 263 260 256 252 252 245 244 244 243
309 305 305 305 305 306 309 311 307 305 301 303 290 284 280 280 282 280 287 295 304 313 325 287 354 347 336 312 304 289 289 290 286 285 273 278 274 264 257 256 257 251 253 254 257 262 259 254 242 243 241 246 249 246

GFSWCAN_2pvu_pres_126.txt.gz
Presure
146 153 153 153 165 161 160 174 150 160 169 171 169 166 187 152 138 156 183 174 180 169 202 193 175 204 173 167 186 177 196 238 199 232 219 245 274 273 189 259 140 238 135 188 139 135 157 235 143 235 233 243 233 175
126 163 165 128 154 165 163 172 165 169 158 186 155 173 141 163 142 136 183 186 205 181 175 195 178 198 213 193 176 229 219 180 228 236 237 230 268 253 300 204 259 246 189 144 199 142 137 152 163 148 241 240 242 140
168 155 161 162 171 182 170 173 166 186 190 163 184 181 199 164 177 174 188 185 182 193 189 192 204 205 204 205 215 187 177 171 204 233 237 194 198 291 267 153 275 260 245 146 138 134 141 141 151 222 240 235 239 241
184 179 182 179 174 179 175 171 179 180 178 181 192 174 199 144 168 161 178 189 172 156 180 204 202 201 198 210 198 208 178 203 203 175 229 192 197 245 268 203 281 273 260 252 143 138 127 207 174 189 210 218 238 237
173 195 171 173 171 178 170 170 177 178 174 192 193 197 191 187 183 184 166 168 203 161 180 188 187 202 179 200 202 183 192 195 229 241 197 179 207 263 252 264 225 289 282 270 251 206 124 144 209 197 147 204 214 235
194 127 206 206 201 186 192 188 201 182 188 185 184 190 196 188 184 185 196 158 196 183 199 185 188 195 194 183 187 216 188 176 220 231 212 177 268 248 261 191 247 289 307 305 275 256 241 237 231 214 214 136 198 220
197 157 205 203 215 201 200 199 200 188 191 190 192 192 187 205 195 215 181 180 195 206 192 191 179 189 182 181 214 210 218 250 250 243 245 233 208 184 261 259 241 306 292 245 301 283 254 252 248 237 191 202 212 202
207 199 208 208 208 201 211 221 204 202 200 208 208 193 204 173 195 206 173 180 187 185 210 201 209 173 190 206 200 215 239 258 247 241 239 261 198 255 238 252 217 244 318 278 284 272 278 248 250 254 246 227 217 196
239 235 246 219 226 229 211 224 203 195 210 216 217 174 207 210 211 186 165 199 216 214 181 204 194 215 193 215 206 193 253 256 247 223 242 195 231 247 247 258 230 257 206 299 295 264 141 266 138 254 256 248 233 214
261 217 250 242 254 238 252 179 222 227 219 213 225 214 213 218 217 217 171 181 174 84 204 192 156 157 187 182 156 195 228 248 236 202 275 209 199 233 232 208 274 195 240 237 334 295 310 151 284 217 252 256 246 168
242 234 242 218 274 225 231 248 185 224 206 219 243 192 193 201 215 211 230 245 245 206 195 193 141 188 209 164 202 246 220 238 247 207 250 261 181 222 238 186 188 240 238 275 315 293 321 326 304 293 263 228 161 248
246 282 284 224 254 242 235 244 228 216 236 238 223 220 212 199 196 242 216 253 242 240 192 203 195 148 208 177 148 230 234 183 240 236 223 191 198 210 217 209 214 226 248 295 266 305 298 313 321 302 292 269 259 254
362 300 309 278 244 271 256 265 260 214 222 219 238 231 267 249 206 272 237 234 175 185 197 228 193 225 178 249 134 135 105 258 112 233 233 241 215 247 229 230 218 224 240 303 309 295 271 292 305 319 294 267 268 258
404 420 342 416 420 324 371 392 309 263 278 259 254 262 236 245 184 220 172 216 214 230 214 209 203 246 142 151 220 231 229 233 212 185 123 141 255 250 292 232 228 226 266 278 317 300 286 289 315 324 312 328 285 265
406 474 472 404 404 401 376 418 388 394 346 340 331 298 318 290 293 279 276 268 174 189 216 186 218 167 239 218 178 182 196 249 116 216 226 251 264 190 284 238 233 264 279 261 279 303 273 306 305 320 314 310 326 276
453 468 468 471 451 477 486 456 407 386 386 382 378 308 344 317 303 303 290 279 215 247 267 203 151 92 249 216 233 159 161 148 135 234 197 252 256 255 272 250 253 249 273 265 278 290 300 257 296 307 313 308 314 316
450 467 462 459 461 470 470 484 397 417 392 385 370 406 397 326 298 352 113 115 165 115 114 119 214 251 243 152 243 116 193 247 221 250 260 265 287 233 281 248 256 253 253 282 271 296 299 280 295 309 307 292 311 310
442 442 442 439 443 460 460 446 430 364 420 388 285 412 449 95 90 77 162 205 301 263 270 269 263 241 246 123 239 133 230 252 232 261 260 268 238 278 271 268 262 254 271 285 273 301 282 297 294 300 323 317 303 308
414 420 421 415 421 428 417 433 432 402 394 408 407 251 392 272 267 430 335 311 327 283 284 279 290 265 250 244 226 260 242 246 274 272 243 240 274 255 277 226 270 260 274 291 293 295 272 271 284 295 299 306 310 302
396 397 399 403 405 410 418 453 458 408 378 370 384 374 399 406 392 383 374 323 338 313 286 281 275 223 221 240 250 242 282 257 259 245 262 269 271 271 270 226 267 276 295 303 288 283 290 285 279 264 302 305 293 304
381 384 398 397 386 426 386 403 407 430 365 344 371 385 338 392 360 378 346 324 314 310 302 290 275 253 256 251 296 284 292 267 289 253 271 276 268 267 258 124 276 282 138 136 302 186 298 285 289 294 298 308 310 303
378 383 433 408 400 380 381 399 390 352 377 384 380 365 347 364 334 351 311 379 341 329 363 302 300 268 271 319 292 287 278 287 265 272 290 284 276 278 272 127 109 216 152 291 278 299 285 184 165 307 311 312 308 307
415 391 372 363 370 378 372 372 368 356 346 352 361 357 359 387 394 312 350 353 343 342 314 305 293 273 283 288 289 288 283 281 286 292 266 267 194 193 289 283 290 306 308 298 301 296 322 324 342 350 340 334 333 328
382 384 372 340 363 370 360 365 369 330 356 333 321 353 335 333 334 344 382 324 319 309 293 290 301 289 278 343 296 280 282 289 291 274 265 273 276 283 288 127 300 284 303 162 319 334 336 342 350 346 355 351 352 337
357 348 361 364 361 393 398 326 337 369 377 338 322 319 315 319 311 316 322 319 304 319 330 327 287 292 314 322 290 271 280 276 283 281 269 297 275 288 276 307 317 271 126 329 484 491 481 480 493 523 345 323 335 343
332 330 331 322 343 354 356 341 345 327 311 303 305 305 302 305 311 317 299 302 310 325 325 312 302 302 300 278 260 275 293 288 292 298 304 312 306 279 303 326 348 384 410 124 442 436 448 468 428 316 322 337 345 325
317 308 310 305 308 309 303 300 293 305 297 300 312 309 292 298 304 308 302 305 304 275 285 280 306 296 288 286 285 280 285 282 289 289 305 309 315 318 338 323 430 440 437 432 432 409 401 361 319 327 340 315 313 294
303 304 297 296 288 297 297 305 294 293 307 313 310 309 305 306 308 298 290 284 288 308 313 310 296 280 280 273 283 277 301 304 303 282 300 303 334 320 395 389 416 366 444 403 394 342 310 312 328 315 334 307 275 284
304 301 295 292 294 299 308 310 307 305 314 298 302 311 327 292 309 324 318 314 307 303 295 289 294 291 286 278 290 293 274 278 289 294 320 318 393 386 383 402 420 298 306 302 310 318 313 310 294 301 296 281 279 272
295 304 298 294 298 307 319 307 297 293 309 307 296 300 300 312 320 303 290 285 293 292 288 284 290 295 302 300 271 312 306 295 305 317 354 384 380 376 409 313 297 306 306 315 309 297 285 273 298 286 276 274 272 262
304 298 305 311 306 320 299 326 325 326 303 305 314 304 300 300 301 297 300 300 283 279 286 288 284 306 299 299 302 289 291 321 295 372 376 377 373 388 307 289 359 307 298 286 278 272 283 280 283 275 268 260 256 250
299 303 321 327 330 318 323 308 330 319 332 293 303 303 297 295 298 274 275 273 284 293 303 299 283 291 291 277 293 325 306 277 369 363 365 372 404 287 280 267 326 277 313 285 281 280 271 268 269 265 255 257 255 249
316 319 315 322 318 323 330 337 342 343 332 324 308 311 305 297 293 284 292 318 301 300 305 295 294 264 293 298 319 294 296 355 360 364 342 289 297 274 299 267 290 284 277 278 283 274 270 267 263 258 256 256 253 246

GFSWCAN_2pvu_pres_129.txt.gz
Presure
160 157 163 150 135 141 163 149 152 152 150 148 157 155 163 152 174 160 147 173 164 151 192 165 169 199 183 194 195 192 199 208 214 199 189 225 207 187 218 233 278 271 286 276 179 152 242 219 169 130 172 143 147 213
148 129 136 166 155 166 165 165 166 161 156 160 151 163 161 174 172 170 155 175 163 139 193 196 184 152 162 179 183 176 199 212 207 194 188 179 177 220 190 193 252 266 205 141 290 275 250 246 143 222 132 137 138 136
176 177 174 130 158 170 166 168 136 144 177 169 170 170 175 162 171 182 193 165 173 177 140 185 158 193 180 179 197 220 192 156 197 221 227 178 238 223 181 231 250 249 266 294 259 304 285 263 253 229 130 134 215 179
171 144 159 185 162 161 165 166 160 164 170 180 173 163 171 170 173 173 189 175 164 133 174 182 171 181 196 193 183 196 205 203 212 226 211 212 209 206 204 215 210 184 256 281 264 327 279 272 260 253 196 136 187 186
172 173 199 191 193 194 173 131 166 177 177 181 180 176 188 190 175 194 193 194 199 146 187 177 191 209 150 187 207 200 171 231 188 223 197 225 204 218 225 187 196 220 208 238 270 250 340 300 276 265 258 133 205 200
189 181 188 184 182 203 185 189 190 189 190 179 203 210 184 192 196 181 192 198 185 214 215 212 137 207 221 217 178 201 225 220 207 183 233 217 208 244 202 202 232 260 246 190 273 275 234 318 303 277 272 261 251 243
224 196 208 191 209 211 184 184 208 193 210 199 199 188 204 198 199 203 220 201 207 180 222 208 194 144 228 218 219 154 213 214 223 244 223 202 213 222 235 221 185 233 215 242 271 251 269 286 309 291 285 224 269 257
216 239 217 217 226 213 219 233 195 208 195 193 211 201 219 221 226 225 207 204 223 191 225 193 208 215 195 186 195 224 220 179 231 245 201 212 214 256 235 225 249 237 233 227 271 224 229 251 309 310 267 245 263 260
238 223 223 237 229 218 224 224 223 216 234 216 208 196 227 219 223 221 215 213 217 215 224 210 224 225 126 172 214 155 196 217 231 142 219 235 209 253 247 225 229 217 197 215 234 226 219 191 217 246 301 281 304 289
237 243 255 233 230 253 205 255 267 254 259 251 224 132 216 226 226 239 228 244 243 213 242 225 193 230 183 95 188 177 210 185 149 228 228 239 237 251 208 195 236 229 216 230 224 200 256 199 109 233 238 308 290 313
294 271 244 287 327 320 325 271 239 228 254 267 261 253 249 221 249 254 255 236 260 254 247 205 233 203 150 99 108 107 103 149 200 169 211 229 217 275 197 200 231 239 228 223 236 240 268 256 209 252 184 309 258 227
419 391 415 385 370 375 344 315 301 287 253 230 224 259 244 235 229 235 229 244 222 213 195 122 157 214 113 212 252 217 155 158 182 165 215 223 218 229 254 193 220 178 184 203 251 192 216 267 109 230 271 118 304 320
403 398 405 393 413 401 360 368 405 305 310 290 277 277 270 263 267 261 274 218 225 217 226 219 187 229 215 226 235 236 213 239 134 98 138 149 115 134 250 125 112 254 221 168 237 264 247 269 244 232 235 115 287 324
381 377 372 393 402 403 390 409 369 374 413 301 291 288 302 293 302 283 277 265 263 269 238 229 242 97 194 201 230 220 230 227 229 215 247 177 119 147 201 222 233 226 242 271 269 254 252 258 270 244 228 146 285 303
433 424 390 381 369 379 392 392 382 381 385 383 390 384 317 339 354 289 279 270 281 210 241 215 195 200 158 213 226 218 211 229 185 135 106 122 115 165 237 250 251 241 238 243 254 252 253 257 285 292 219 268 267 292
427 438 437 441 435 387 368 377 376 378 373 381 391 387 394 411 298 309 292 284 258 152 262 226 253 169 236 250 133 264 159 258 251 160 150 180 226 107 237 248 254 247 144 237 275 264 257 248 273 279 261 263 276 176
418 423 419 422 431 440 433 433 437 447 446 380 400 435 398 393 365 378 417 286 136 145 313 318 313 280 125 127 179 253 220 108 142 244 230 195 259 226 234 253 245 245 230 245 259 271 260 250 280 268 269 287 279 273
410 405 416 422 431 429 424 424 434 440 438 452 477 479 470 139 366 426 376 450 181 99 101 143 239 327 337 314 265 249 270 183 127 232 234 231 252 182 253 249 241 241 130 246 280 266 238 247 271 275 262 275 272 272
401 405 405 412 413 415 419 424 420 432 442 447 351 252 454 472 487 239 381 95 181 420 362 374 393 427 364 292 211 83 280 255 267 276 272 268 267 245 246 279 249 198 245 247 227 255 255 274 278 257 285 268 274 287
388 393 397 400 396 398 405 419 417 429 444 440 317 454 455 448 419 195 323 385 243 314 450 396 385 376 381 350 325 157 249 280 248 314 268 260 261 253 248 214 250 237 249 233 175 231 254 272 280 267 294 276 287 292
384 381 385 383 393 400 407 413 428 437 429 442 430 449 438 468 464 383 374 404 396 370 462 426 86 90 90 206 277 311 308 287 274 302 290 273 269 300 255 269 264 259 270 287 261 265 269 273 308 276 275 282 286 299
363 366 374 378 383 390 409 409 410 400 409 418 414 430 461 462 429 359 173 380 423 178 431 397 389 339 395 331 326 334 310 336 312 297 281 289 270 278 271 266 264 289 281 188 107 283 248 184 277 133 176 296 293 291
356 360 365 370 377 386 386 383 391 401 412 452 461 469 480 398 417 392 384 372 343 400 367 360 362 363 382 157 209 350 297 365 308 305 306 286 277 270 280 278 296 281 301 292 205 295 257 229 218 299 293 289 288 296
348 352 355 364 377 379 379 385 387 438 410 407 414 413 418 346 381 386 401 395 364 355 325 350 340 346 334 333 341 308 302 315 321 305 318 318 278 276 276 295 306 296 124 253 298 293 282 283 308 298 215 322 334 334
341 347 361 371 378 376 414 411 404 414 380 381 374 366 377 358 354 353 344 337 357 386 352 363 333 345 343 334 312 299 306 331 301 310 285 288 290 304 321 306 285 287 285 269 268 291 322 314 316 257 358 467 472 490
345 354 359 372 397 388 382 394 390 367 360 358 336 368 331 321 327 323 318 314 325 343 368 314 335 330 323 313 308 320 325 328 320 315 315 289 296 320 313 291 282 308 301 298 297 315 325 316 124 217 449 451 475 481
361 356 414 377 344 335 342 363 376 384 309 353 337 325 317 313 322 308 301 301 310 320 334 328 313 305 311 311 306 316 337 321 310 307 309 305 289 278 301 298 292 279 300 309 315 322 427 475 442 421 419 419 322 309
399 344 338 341 335 331 328 331 341 344 328 319 321 318 312 307 298 326 311 308 299 302 308 310 312 298 302 303 309 300 290 285 293 295 288 295 295 299 272 293 311 299 311 317 356 467 463 417 402 387 324 305 322 333
324 324 319 316 311 310 309 309 312 317 306 311 311 308 306 311 298 298 296 319 300 301 307 300 295 314 298 276 289 275 277 285 284 287 285 287 293 281 290 295 317 323 326 418 479 429 404 369 312 301 326 328 338 319
312 310 307 299 298 297 301 297 299 297 299 298 301 307 309 317 316 307 317 315 312 298 295 297 291 293 299 300 295 292 290 287 286 290 297 311 322 313 309 314 321 402 414 450 411 301 298 309 318 316 323 311 285 277
299 293 291 294 296 294 301 304 290 294 298 301 305 306 307 300 281 302 320 318 300 306 300 298 296 293 286 285 284 277 287 280 288 300 306 317 305 313 304 396 391 410 452 293 309 315 306 295 302 307 278 273 263 265
291 289 294 296 297 298 298 289 293 297 298 310 313 295 294 290 296 294 298 302 299 286 290 292 276 275 283 281 292 306 312 319 311 311 303 311 301 392 384 383 415 286 276 309 299 288 275 276 265 265 264 263 265 264
294 294 301 302 300 296 297 308 306 310 314 313 312 307 326 324 289 297 305 294 295 295 298 299 295 290 279 291 300 299 304 302 297 299 324 382 376 376 407 290 281 314 280 286 275 275 261 282 267 271 264 262 261 259

GFSWCAN_2pvu_pres_132.txt.gz
Presure
162 175 171 165 161 160 158 170 159 135 140 139 165 162 173 160 143 170 174 161 158 176 175 137 181 160 176 179 179 205 176 195 220 190 184 191 237 223 194 234 218 186 180 214 249 235 280 139 151 224 265 146 191 164
165 167 162 161 160 172 173 169 163 164 169 154 161 136 176 172 171 146 174 170 168 163 176 184 167 175 160 190 190 197 150 194 220 209 181 187 229 201 222 180 227 220 221 195 242 244 256 285 177 285 267 155 235 139
169 170 165 162 145 154 166 176 171 161 179 182 168 169 172 173 166 170 168 181 174 187 184 185 168 190 131 184 177 194 151 200 219 229 221 237 190 222 205 228 185 208 244 253 191 235 247 219 258 241 288 245 269 215
183 188 150 164 173 171 190 175 166 166 187 183 164 172 172 184 159 180 196 197 190 184 181 178 183 180 187 135 179 187 211 219 218 224 215 233 226 226 225 225 190 216 231 219 275 238 255 272 264 270 276 297 213 270
194 204 201 190 195 188 171 181 195 193 190 179 175 175 175 148 185 184 194 189 193 201 195 186 203 186 192 198 201 209 138 212 200 214 192 220 193 238 222 217 207 223 211 228 280 236 209 250 213 256 252 295 339 288
192 184 126 125 182 185 209 185 187 175 178 202 161 206 223 198 211 186 214 196 213 210 203 225 193 193 211 157 206 205 218 206 122 221 193 238 227 230 219 207 198 218 213 242 285 218 214 254 245 277 249 248 280 283
199 201 210 196 200 201 203 201 198 211 207 223 222 226 192 207 193 202 213 213 193 194 223 201 216 202 201 207 206 199 230 228 228 224 140 241 165 240 221 215 196 192 122 207 267 240 248 223 260 214 225 234 232 217
219 233 220 205 218 195 217 217 231 217 223 230 224 207 200 213 221 213 202 219 229 211 219 212 223 224 220 208 203 234 222 226 200 233 151 257 238 208 199 218 210 225 189 241 230 242 221 201 209 215 194 214 213 221
234 233 224 237 234 226 227 232 227 232 229 218 238 219 209 204 218 220 219 233 238 215 237 227 241 222 230 262 216 129 210 178 261 241 216 183 247 220 198 214 169 223 237 222 226 272 224 242 217 218 223 219 224 214
266 241 233 250 251 247 262 242 233 254 205 233 207 261 216 253 228 247 215 254 257 226 231 257 251 210 277 198 134 227 255 256 253 244 240 221 230 168 204 150 138 203 229 217 239 240 262 237 220 237 218 273 146 272
254 281 265 329 271 267 256 328 256 251 284 244 262 247 315 308 275 257 257 231 278 299 224 222 157 117 105 126 191 209 231 253 233 184 110 220 259 208 181 142 76 101 229 94 242 229 245 192 243 250 214 200 211 261
345 344 351 325 355 354 384 412 398 424 405 272 284 415 331 300 316 253 309 299 310 294 284 192 98 124 257 251 175 197 191 201 210 216 233 232 201 105 128 136 129 138 141 218 124 113 233 235 238 263 226 234 242 216
360 363 364 366 364 364 367 365 378 395 367 359 392 396 398 350 392 382 337 338 341 312 290 207 181 128 257 177 206 244 255 143 262 230 144 212 194 187 152 166 164 168 101 235 150 211 228 211 234 264 222 205 233 269
353 352 350 347 341 339 338 336 338 383 380 379 393 403 391 391 415 398 370 418 383 321 315 302 232 261 270 236 226 265 265 106 227 276 96 136 206 195 135 185 207 219 214 137 222 241 215 175 242 236 258 239 246 256
438 385 386 441 365 424 341 335 329 322 326 384 368 387 399 410 398 381 370 380 375 361 348 320 295 279 203 283 264 87 242 228 179 226 201 235 154 237 116 208 178 185 221 195 241 244 223 154 237 236 240 249 251 253
432 439 429 430 429 430 430 430 436 391 324 320 418 396 381 391 197 390 363 86 88 93 283 355 351 307 229 178 280 233 286 279 265 163 143 98 107 102 133 193 226 204 188 225 246 144 262 230 238 247 256 252 239 250
423 424 414 419 418 414 415 420 415 416 418 441 442 450 440 418 364 361 377 373 349 375 383 128 387 358 345 332 291 142 342 234 169 112 99 185 95 105 159 234 240 229 237 237 243 268 265 237 246 245 237 227 265 252
415 405 402 402 402 401 404 408 413 413 371 149 244 437 431 145 87 461 434 378 315 102 385 394 381 374 370 396 401 340 258 116 94 126 162 125 236 174 250 250 250 247 245 152 265 253 267 248 247 197 256 256 252 254
397 395 394 395 393 395 395 405 410 420 432 435 437 432 432 439 445 451 300 444 96 419 388 387 384 257 93 103 393 394 266 269 378 230 262 229 266 335 305 269 288 275 288 263 280 265 274 274 238 268 241 228 253 244
383 384 385 383 381 388 395 403 411 421 425 429 429 431 432 338 87 448 446 398 444 440 442 305 85 95 149 373 276 439 394 413 361 365 384 371 378 339 310 296 324 330 288 274 263 291 275 189 270 254 259 256 251 269
374 369 372 373 378 386 391 403 412 420 419 419 414 422 433 431 443 440 439 441 436 422 443 104 95 427 107 357 356 347 401 399 390 89 336 355 343 345 331 337 364 279 284 290 248 259 291 273 271 259 261 261 265 289
367 370 372 375 379 384 403 405 399 398 412 426 406 413 420 429 430 433 429 435 449 470 185 95 416 412 391 372 350 287 140 178 392 408 351 365 343 342 326 318 305 287 298 332 279 276 296 291 267 287 164 282 283 240
366 366 370 373 379 392 397 377 390 385 396 391 401 411 412 414 416 404 439 433 456 472 437 307 395 362 414 273 377 377 368 387 384 370 340 348 329 335 318 311 300 300 305 301 308 289 278 274 266 280 287 223 313 318
363 367 374 381 389 383 365 372 372 369 377 376 386 419 442 442 445 461 492 507 383 335 349 378 374 385 401 386 343 373 366 370 373 337 387 358 337 303 350 362 310 308 304 307 308 277 219 274 285 275 277 290 304 309
376 372 381 369 361 352 351 359 363 373 368 410 395 411 398 398 414 379 380 364 362 355 356 345 339 377 367 364 346 344 332 334 344 341 390 376 300 321 293 298 345 276 317 285 305 305 284 280 327 313 310 312 300 312
371 370 342 336 344 338 353 359 376 433 402 395 378 378 379 385 371 351 321 344 350 349 354 372 366 351 346 346 344 335 273 345 341 337 330 329 334 303 299 308 339 301 306 292 281 271 302 307 308 303 299 312 298 267
358 332 327 335 340 350 390 390 395 384 370 351 347 349 367 336 328 331 331 331 329 331 338 338 361 388 354 353 336 332 330 317 315 309 312 321 319 313 302 303 313 314 294 290 301 296 297 288 300 314 317 340 440 428
329 326 329 362 378 365 361 366 347 354 345 325 335 347 324 323 317 322 322 323 318 323 323 340 368 320 320 312 313 314 314 312 309 308 321 321 306 311 308 303 303 295 294 297 294 288 297 322 319 332 434 417 410 312
322 401 413 349 352 355 349 351 354 332 340 318 331 327 315 322 304 312 312 312 308 302 313 300 299 302 301 302 310 305 303 305 306 306 304 306 298 293 290 291 296 286 282 296 324 329 304 344 445 411 390 303 295 289
338 339 339 335 331 326 331 320 321 306 336 338 317 312 308 296 305 312 313 299 293 295 292 292 297 297 299 303 308 311 292 298 291 276 276 281 294 293 293 283 287 311 314 320 310 334 416 440 359 301 288 301 321 305
328 320 322 319 322 322 332 330 321 320 319 305 301 300 300 299 306 300 285 294 296 301 292 293 296 299 299 303 302 304 285 296 275 291 291 288 279 281 290 292 303 311 302 319 388 438 422 297 285 293 291 311 298 292
322 309 311 315 312 304 306 299 303 292 292 293 284 296 295 302 294 301 302 302 303 312 313 296 318 310 299 294 284 288 290 289 292 289 288 288 308 309 310 310 293 318 381 390 444 315 280 277 302 302 304 295 279 276
310 307 307 305 292 308 300 293 297 290 283 286 282 292 292 301 305 279 290 300 301 310 303 305 303 291 289 293 291 288 288 296 282 291 304 300 304 304 299 310 378 378 391 333 277 274 298 315 304 287 277 275 267 262